Biedriem

VSK Noskrien twitter
VSK Noskrien Facebook profils

Polar M400 HR
Ūdensizturīgs GPS pulsometrs ikdienas treniņiem un sportiskiem sasniegumiem.
EUR 189.00

Noskrietais


Visi skrējieni šim skrējējam
Datums Notikums Skrējējs Km Laiks Pulss Am min/km km/h Apavi
23/03/19 Dzelteni taureņi mežā Lauma 15.01 1:30:30 141 06:01 9.95 ir
21/03/19 lietus migla vakarā Lauma 17.01 1:42:38 125 06:02 9.94 ir
20/03/19 Tā gribējās man pilnmēnesi pavērot Lauma 15.50 1:22:10 142 05:18 11.32 ir
19/03/19 Starp lietus lāsēm Lauma 9.19 51:42 134 05:37 10.67 ir
56.71
17/03/19 Ziedēja Ziediņkalns Lauma 11.00 1:46:28 144 503 09:40 6.20 ir
16/03/19 krokusi jau zied Lauma 15.00 1:30:24 134 06:01 9.96 ir
12/03/19 uzsniga sniedziņš balts, pavasarī Lauma 10.00 1:00:05 133 06:00 9.99 ir
36.00
10/03/19 Jau atkal skaisti snieg Lauma 20.00 1:59:03 132 05:57 10.08 ir
08/03/19 Astotais marts Lauma 13.10 1:11:38 149 05:28 10.97 ir
33.10
03/03/19 starp lietu un sniegpārslām Lauma 17.01 1:45:35 137 06:12 9.67 ir
01/03/19 pirmais marts Lauma 10.08 1:00:45 138 06:01 9.96 ir
27/02/19 Svētku diena Lauma 10.00 1:01:28 135 06:08 9.76 ir
37.09
22/02/19 vakars ar vēju Lauma 6.50 42:25 06:31 9.19 ir
6.50
09/02/19 Vai tad tas ir vējš kas pūš? Lauma 17.01 1:47:44 129 06:20 9.47 ir
08/02/19 Starp laternām, naktsputniem Lauma 13.64 1:13:51 144 05:24 11.08 ir
05/02/19 Ar perfekto komandas biedreni Lauma 10.05 1:03:30 131 06:19 9.50 ir
40.70
03/02/19 Ziema nāc atpakaļ! Lauma 9.32 1:00:02 124 06:26 9.31 ir
30/01/19 Vakars. Sniegs visapkārt. Lauma 12.45 1:08:03 147 05:27 10.98 ir
21.77
25/01/19 snieg, balti snieg Lauma 7.44 42:52 142 05:45 10.41 ir
23/01/19 cīrulis kliedz gaisā augstu Lauma 9.58 1:00:05 134 06:16 9.57 ir
17.02
16/01/19 Baltā ziemas pasaka Lauma 12.53 1:14:33 152 05:56 10.08 ir
12.53
04/01/19 sniegs uz pilsētas asfalta Lauma 10.16 1:03:41 134 06:16 9.57 ir
03/01/19 naktī pīles kliedz Lauma 12.50 1:11:28 147 05:43 10.49 ir
02/01/19 Ārā labs laiks tāpēc jāmeklē trase, kur paslēpot Lauma 9.20 1:00:01 132 06:31 9.20 ir
31.86
30/12/18 katrā tunelī ir gaisma, tikai jāspēj saskaitīt Lauma 12.00 1:08:38 149 05:43 10.49 ir
28/12/18 it will snow tomorrow Lauma 14.00 1:31:21 137 06:31 9.20 ir
25/12/18 Ziemassvētkos atceramies pasakas. Lauma 11.58 1:05:34 147 05:39 10.60 ir
37.58
16/12/18 Noskrien Ziemu 1.p Lauma 9.07 55:11 162 06:05 9.86 ir
16/12/18 iesildīšanās/atsildīšanās Lauma 3.41 21:43 139 06:22 9.42 ir
14/12/18 Debesis arvien ir zilas arī tad, ja zvaigznes krīt Lauma 11.21 1:10:29 136 06:17 9.54 ir
12/12/18 Katru rītu ceļas vēji un tad cauri kokiem plūst Lauma 9.57 1:00:01 138 06:16 9.57 ir
33.26
08/12/18 runāsim labāk rīt, kad viss būs sasalis Lauma 15.31 1:40:02 138 06:32 9.18 ir
07/12/18 seši sārti sivēntiņi sūkā sulīgus salātus silē Lauma 9.41 1:00:00 136 06:22 9.41 ir
05/12/18 vakara miedziņš Lauma 7.05 45:08 135 06:24 9.37 ir
31.77
29/11/18 Vakars Prāgā Lauma 5.00 31:50 132 06:22 9.42 ir
26/11/18 rīt snigs, mēness Lauma 9.43 1:00:29 137 06:24 9.35 ir
14.43
24/11/18 Saules meita vārtus vēra, zvaigžņu cimdi rociņā Lauma 14.01 1:30:17 137 06:26 9.31 ir
23/11/18 kur latviešu valodā skan mūsu tautas dziemas Lauma 10.24 1:03:14 141 06:10 9.72 ir
24.25
17/11/18 Brīvības rogainings Lauma 41.01 5:55:55 144 08:40 6.91 ir
15/11/18 vakars rajona priedēs Lauma 8.26 51:39 138 06:15 9.60 ir
49.27
10/11/18 Rīgas rogainings Lauma 31.89 3:49:14 148 07:11 8.35 ir
09/11/18 migla vakarā Lauma 8.05 52:22 139 06:30 9.22 ir
39.94
03/11/18 Vai ir dzīve pēc Hānjas? Lauma 6.26 40:04 135 06:24 9.37 ir
6.26
27/10/18 Haanja ultra 100 Lauma 100.00 13:05:54 142 07:51 7.63 ir
25/10/18 perfekts pilnmēness Lauma 8.52 52:35 136 06:10 9.72 ir
24/10/18 Rītausmas mednieks caur meldriem brien Lauma 8.01 50:14 137 06:16 9.57 ir
116.53
20/10/18 Kuršių Nerija Lauma 21.52 1:58:48 161 05:31 10.87 ir
20/10/18 Iesildīšanās Lauma 1.63 09:53 139 06:03 9.90 ir
17/10/18 Mēnestiņš, čigāniņš, caur eglēm sāk vērties Lauma 10.01 1:01:26 136 06:08 9.78 ir
33.16
14/10/18 rudens kā rudens biezie un gājputni laižas uz Nīlu Lauma 20.15 2:00:01 134 05:57 10.07 ir
13/10/18 Kad migla pēc saulainās dienas pilsētu atstājusi Lauma 11.25 1:10:01 130 06:13 9.64 ir
11/10/18 tumsa, tumsa trasē tumsa Lauma 15.00 1:25:53 137 05:43 10.48 ir
08/10/18 pirmdienis Lauma 8.01 49:15 133 06:08 9.76 ir
54.41
06/10/18 Tartu pusmaratons Lauma 21.10 1:58:16 149 05:36 10.70 ir
06/10/18 Atsildīšanās Lauma 0.77 05:46 133 07:29 8.01 ir
04/10/18 Vēji pierimuši Lauma 13.13 1:13:55 141 05:37 10.66 ir
35.00
29/09/18 Stirnu buks - zaķis Līgatne Lauma 11.17 1:16:25 164 06:50 8.77 ir
29/09/18 iesildīšanās Lauma 1.48 10:26 125 07:02 8.51 ir
28/09/18 krusa, krusa liela krusa Lauma 9.12 53:07 138 05:49 10.30 ir
27/09/18 vakars ielās Lauma 7.03 42:58 136 06:06 9.82 ir
28.80
22/09/18 lietus no skaidrām debesīm Lauma 14.71 1:30:46 137 06:10 9.72 ir
21/09/18 mežā ir lapas Lauma 9.23 1:00:03 143 06:30 9.22 ir
23.94
16/09/18 Berlīnes maratons Lauma 42.20 3:56:58 155 05:36 10.68 ir
15/09/18 Rīts pa Treptower parku Lauma 5.70 35:23 133 06:12 9.67 ir
13/09/18 Pa Treptower parku Lauma 7.88 47:52 136 06:04 9.88 ir
55.78
03/09/18 Chamonix - La Flegere Lauma 7.19 44:53 141 06:14 9.61
7.19
29/08/18 TDS (Sur les Traces des Ducs de Savoie) Lauma 126.27 29:05:43 124 13:49 4.34 ir
126.27
25/08/18 Līdz cascade du Dard Lauma 13.66 3:43:42 114 16:22 3.66 ir
24/08/18 Līdz Le Brevent Lauma 19.57 5:35:36 119 17:08 3.50 ir
22/08/18 labu vakar ilgi, ilgi Lauma 9.63 54:13 138 05:37 10.66 ir
42.86
18/08/18 Stirnu buks Āžu kalns Lauma 22.81 2:29:46 161 06:33 9.14 ir
18/08/18 Iesildīšanās Lauma 2.16 12:55 140 05:58 10.03 ir
14/08/18 Zvaigznes kā komētas krīt Lauma 10.29 1:00:01 135 05:49 10.29 ir
35.26
11/08/18 astoņas atlētiskas aitas ar adatainām astēm atpūšas augstos alpos Lauma 13.13 1:25:00 137 06:28 9.27 ir
09/08/18 Vakarā, kad saule norietējusi Lauma 14.04 1:19:24 142 05:39 10.61 ir
27.17
04/08/18 Kā gulbji melni padebeši skrien Lauma 17.01 1:41:17 135 05:57 10.08 ir
03/08/18 Mežā tumsa nāk Lauma 7.10 50:01 136 07:02 8.52 ir
30/07/18 līdz ezeram ar lietusgāzi pēc tam Lauma 6.81 41:32 134 06:05 9.84 ir
30.92
26/07/18 Naktī zvaigžņu nav, nav Lauma 10.01 1:01:01 137 06:05 9.84 ir
24/07/18 Aizbrauca tālu jumts prom Lauma 9.49 54:55 143 05:47 10.37 ir
23/07/18 Gandrīz pilnmēness vasaras naktī Lauma 10.00 1:01:54 135 06:11 9.69 ir
29.50
21/07/18 Apkārt Pühajärv ezeram Lauma 10.26 1:09:00 133 06:43 8.92 ir
19/07/18 Filter skrējiens 4.p Garkalne Lauma 5.17 26:10 151 05:03 11.85 ir
16/07/18 pēc trakās dienas svelmes ar finiša plunkšķi ezerā Lauma 10.19 58:20 148 05:43 10.48 ir
25.62
14/07/18 Pērkons granda ducināja Lauma 20.00 2:05:12 141 06:15 9.58 ir
12/07/18 Es izgāju no ustabas zelta zvaigznes skatīties Lauma 9.49 1:00:13 141 06:20 9.46 ir
10/07/18 Vai ir dzīve pēc dziesmusvētkiem? Lauma 10.85 1:04:42 144 05:57 10.06 ir
40.34
04/07/18 Lai skan, lai mūsu dziesmas skan! Lauma 7.01 44:45 134 06:23 9.40 ir
7.01
30/06/18 Iesildīšanās pirms Vilkačiem Lauma 1.33 08:39 133 06:30 9.23 ir
30/06/18 Vilkaču maratons Lauma 43.37 6:54:31 152 09:33 6.28 ir
28/06/18 šovakar pilnmēness Lauma 6.91 41:46 140 06:02 9.93 ir
26/06/18 būs mirdzoša diena, gaiss dzirdi zils Lauma 7.58 43:52 148 05:47 10.37 ir
59.19
22/06/18 Visiem vārti appušķoti, Kaimiņami nepušķoti. Kaimiņami laiski puiši, Savus vārtus nepušķoja, līgo. Lauma 5.52 43:16 137 07:50 7.65 ir
21/06/18 oki ļeji ļeiteņ Lauma 8.01 48:41 132 06:04 9.87 ir
18/06/18 es atnācu uguntiņu Lauma 12.02 1:15:01 133 06:14 9.61 ir
25.55
16/06/18 Tukša pilsēta sestdienā Lauma 8.94 54:00 135 06:02 9.93 ir
14/06/18 vakars. jasmīni. smarža Lauma 7.25 45:02 137 06:12 9.66 ir
12/06/18 otrdienis Lauma 6.01 34:38 140 05:45 10.41 ir
22.20
09/06/18 buks līdz Engurei jūru skatīties Lauma 7.11 42:27 151 05:58 10.05 ir
09/06/18 iesildīšanās Lauma 0.80 05:03 132 06:18 9.50 ir
07/06/18 Filter skrējiens 3.p Lauma 5.01 24:41 162 04:55 12.18 ir
07/06/18 iesildīšanās Lauma 1.60 09:39 135 06:01 9.95 ir
14.52
03/06/18 Babītes zilonis 12+km Lauma 12.47 1:08:30 160 05:29 10.92 ir
31/05/18 Mežā ir odi Lauma 7.01 42:36 138 06:04 9.87 ir
29/05/18 ar plunkšķi Ķīšezerā Lauma 10.11 1:01:01 140 06:02 9.94 ir
29.59
20/05/18 LRM 21km TT 2h15min Lauma 21.10 2:14:57 143 06:23 9.38 ir
15/05/18 Pirms Spartas Lauma 4.82 27:46 133 05:45 10.42 ir
14/05/18 vakara dzestrumā Lauma 6.01 37:01 135 06:09 9.74 ir
31.93
13/05/18 Reibinošā ceriņu smarža Lauma 20.37 2:06:07 137 06:11 9.69 ir
10/05/18 Smaržo pēc pavasara Lauma 6.01 35:18 145 05:52 10.22 ir
26.38
05/05/18 iesildīšanās Lauma 2.02 13:10 06:31 9.21 ir
05/05/18 Stirnu buks 2.posms - buks Lauma 20.58 2:08:46 159 06:15 9.59 ir
30/04/18 balta saule spīd Lauma 9.00 54:18 138 06:02 9.94 ir
31.60
27/04/18 saule starp lietus mākoņiem Lauma 10.30 1:01:44 137 05:59 10.01 ir
24/04/18 pelēka padebess vakarā Lauma 8.01 49:31 137 06:10 9.71 ir
18.31
22/04/18 TT koptreniņš Mežaparkā Lauma 4.20 26:32 138 06:19 9.50 ir
22/04/18 izlūkot Lūša distanci - būs forši Lauma 29.00 3:42:33 139 07:40 7.82 ir
21/04/18 mežā nav vējš Lauma 4.27 27:59 137 06:33 9.16 ir
19/04/18 vējelis rajonā Lauma 7.22 44:27 149 06:09 9.75 ir
44.69
08/04/18 pieci dzelteni tauriņi Lauma 10.20 1:00:15 147 05:54 10.16 ir
10.20
25/03/18 kalendārais pulkstenis nozaga vienu stundu Lauma 15.01 1:32:01 137 06:07 9.79 ir
24/03/18 gaismeņa, sauleite Lauma 11.01 1:08:02 142 06:10 9.71 ir
22/03/18 Mēness ragā veroties Lauma 12.01 1:24:16 136 07:00 8.55 ir
38.03
18/03/18 Noskrien ziemu 4.p Lauma 6.71 34:58 167 05:12 11.51 ir
16/03/18 Šķiet es dzirdu pavasari, katru reizi, kad ieklausos Lauma 11.01 1:08:50 142 06:15 9.60 ir
17.72
23/02/18 Transgrancanaria 125km Lauma 129.50 24:29:33 127 11:20 5.29 ir
129.50
17/02/18 Plaza de Vilaflor (1950m vjl) Lauma 14.86 3:51:33 15:34 3.85 ir
15/02/18 Buenavista - Tento - Punte de Teno Lauma 10.29 2:23:39 13:57 4.30 ir
14/02/18 Labrīt El Medano Lauma 11.36 1:20:56 149 07:07 8.42 ir
14/02/18 Labrīt El Medamo Lauma 11.36 1:20:56 149 07:07 8.42 ir
47.87
07/02/18 trešdienis Lauma 7.10 44:48 135 06:18 9.51 ir
7.10
04/02/18 saulīte ar zobiem un negantnieks vējš Lauma 17.01 1:48:27 138 06:22 9.41 ir
02/02/18 Tumša naktī, naktī sniegi sniga Lauma 12.00 1:16:29 139 06:22 9.41 ir
31/01/18 janvāris. pilnmēness Lauma 7.14 43:36 142 06:06 9.83 ir
36.15
28/01/18 Sniegotā Sigulda Lauma 18.40 2:24:38 145 07:51 7.63 ir
18.40
21/01/18 Ir pasaulē kalni jo augsti, bet manu par Gaiziņu sauc. Lauma 6.01 45:09 135 07:30 7.99 ir
20/01/18 Gaiziņa-Vestienes augstiene Lauma 17.32 1:49:08 147 06:18 9.52 ir
19/01/18 sniega piestaigātās ieliņas Lauma 7.10 46:21 138 06:31 9.19 ir
17/01/18 sniegs gurkst zem kājām Lauma 6.55 43:47 136 06:41 8.98 ir
36.98
14/01/18 ar mazām sniega pārslām Lauma 24.10 2:34:53 136 06:25 9.34 ir
13/01/18 sasalušās Siguldas gravas Lauma 19.01 2:32:37 139 08:01 7.47 ir
12/01/18 Brīvdabas muzeja gaismas spēles Lauma 8.15 56:52 134 06:58 8.60 ir
11/01/18 ņem to siksniņ, sien to kurpīt Lauma 15.01 1:33:12 145 06:12 9.66 ir
66.27
06/01/18 16. Pääsküla raba maraton  Lauma 21.10 1:52:50 160 05:20 11.22 ir
04/01/18 kad lietus lāses vakarā krīt Lauma 7.01 44:50 138 06:23 9.38 ir
01/01/18 Ja jaunā gada pirmajā dienā pie debesīm spīd pilnmēness, tad visu gadu gaudos vilki Lauma 7.01 45:56 139 06:33 9.16 ir
35.12
31/12/17 Vecgada vakarā jātur durvis un logi vaļā, lai vecais gads tiek projām. Lauma 6.50 39:36 139 06:05 9.85 ir
29/12/17 žļurk, žļurk Lauma 8.00 51:44 140 06:28 9.28 ir
28/12/17 pāri dzelzceļa sliedēm Lauma 8.01 51:29 142 06:25 9.34 ir
22.51
24/12/17 Salatēvs pār laukiem brien, Slēpju nav, jo zāle vien. Pāri plecam vilku vāle Eglīte un jāņu zāle. Lauma 10.41 1:11:09 144 06:50 8.78 ir
19/12/17 vakarā Lauma 4.70 29:08 140 06:11 9.68 ir
15.11
17/12/17 Noskrien Ziemu 1.p Lauma 20.10 1:53:43 167 05:39 10.61 ir
17/12/17 iesildīšanās Lauma 1.00 06:49 140 06:49 8.80 ir
16/12/17 nomācies dienas sākums Lauma 10.39 1:08:16 148 06:34 9.13 ir
14/12/17 es, suns, prieks Lauma 9.00 1:02:46 139 06:58 8.60 ir
13/12/17 starp vēja brāzmām Lauma 4.73 28:58 143 06:07 9.80 ir
45.22
10/12/17 ieelpot mežu Lauma 7.01 47:33 146 06:46 8.85 ir
06/12/17 sūnu ciema slidotava Lauma 7.00 47:00 141 06:42 8.94 ir
14.01
26/11/17 saulainā svētdienas pēcpusdiena Lauma 5.01 31:11 141 06:13 9.64 ir
21/11/17 vakarā līdz Spartai Lauma 4.73 29:36 134 06:15 9.59 ir
20/11/17 ko tu vēl domā Lauma 6.41 42:10 133 06:34 9.12 ir
16.15
19/11/17 Neiespējamais skrējiens Lauma 25.20 2:16:44 159 05:25 11.06 ir
18/11/17 Mana sirds ir Latvija Lauma 3.27 19:45 138 06:02 9.93 ir
17/11/17 Gaiša mana dziesma dega Lauma 8.01 51:03 140 06:22 9.41 ir
16/11/17 jo vajātājs nezin un ķērējs tāpat, ka lidot, ka lidot es varu Lauma 5.01 30:25 140 06:04 9.88 ir
15/11/17 miglas vāli lietū Lauma 2.56 15:42 141 06:07 9.78 ir
14/11/17 Šī pasaule ir traka, traka Lauma 4.72 27:29 145 05:49 10.30 ir
13/11/17 debesis arvien ir zilas Lauma 3.01 18:57 139 06:17 9.53 ir
51.78
12/11/17 cik stundu paliek tavam priekam Lauma 17.00 1:48:04 144 06:21 9.44 ir
11/11/17 Šī ir dziesma manai pilsētai Pilsētai, kas ir šai rītā skaista Lauma 22.01 2:28:21 140 06:44 8.90 ir
09/11/17 mēs lidosim Lauma 9.44 57:59 149 06:08 9.77 ir
48.45
05/11/17 No jumta, protams, zvaigznes ir labāk redzamas, kā pa logu. Lauma 12.01 1:15:42 143 06:18 9.52 ir
12.01
21/10/17 Karostas Stirnu buks - zaķis Lauma 12.53 1:16:35 163 06:06 9.82 ir
19/10/17 cik? seš ar pus Lauma 6.51 39:14 142 06:01 9.96 ir
19.04
15/10/17 Estonian wilderness maraton Lauma 43.50 5:25:39 153 07:29 8.01 ir
10/10/17 rudenīgas peļķes Lauma 5.02 29:54 145 05:57 10.07 ir
48.52
08/10/17 Gājputni laižas uz Nīlu Lauma 11.00 1:04:35 147 05:52 10.22 ir
03/10/17 Šai vakarā, kad pilnmēness spoži spīd Lauma 10.02 1:00:14 147 06:00 9.98 ir
21.02
01/10/17 vienpadsmit Lauma 11.01 1:06:11 144 06:00 9.98 ir
29/09/17 Septiņi Lauma 7.01 43:12 136 06:09 9.74 ir
28/09/17 Vakars Lauma 10.24 1:03:47 146 06:13 9.63 ir
26/09/17 Uz Spartu Lauma 4.74 27:34 147 05:48 10.32 ir
33.00
10/09/17 Minskas pusmaratons Lauma 21.10 2:01:14 160 05:44 10.44 ir
05/09/17 setpiņi Lauma 7.01 42:13 148 06:01 9.96 ir
28.11
01/09/17 šurp grāmatas uz skolu Lauma 3.01 18:11 1323 06:02 9.93 ir
29/08/17 pieci Lauma 5.00 31:34 135 06:18 9.50 ir
29/08/17 viens Lauma 1.01 05:48 136 05:44 10.45 ir
29/08/17 viens Lauma 1.01 05:58 132 05:54 10.16 ir
28/08/17 krikucīts Lauma 2.50 16:37 128 06:38 9.03 ir
12.53
19/08/17 Stirnu buks - zaķis Lauma 13.54 1:29:11 162 06:35 9.11 ir
16/08/17 mežā Lauma 3.01 19:29 143 06:28 9.27 ir
15/08/17 Kad saule rotājās Lauma 7.01 42:22 142 06:02 9.93 ir
23.56
11/08/17 trīs Lauma 3.01 18:08 139 06:01 9.96 ir
07/08/17 Pilnmēness ielas galā Lauma 4.30 30:14 125 07:01 8.53 ir
7.31
05/08/17 Cēsu eco trail Lauma 40.96 5:25:50 147 07:57 7.54 ir
04/08/17 Četri Lauma 4.01 25:40 123 06:24 9.37 ir
02/08/17 Vienpadsmit Lauma 11.01 1:05:50 140 05:58 10.03 ir
55.98
29/07/17 Pokaiņu stirnu buks - zaķis Lauma 9.22 1:03:18 165 06:51 8.74 ir
29/07/17 Izlūkot sprinta etapu Lauma 2.39 22:40 130 09:29 6.33 ir
26/07/17 Kur meža zemenes smaržo Lauma 8.01 51:10 145 06:23 9.39 ir
25/07/17 Septiņi Lauma 7.01 42:48 140 06:06 9.83 ir
26.63
15/07/17 VSK Noskrien dzimšanas dienas 24 h stafete Lauma 14.01 1:24:15 151 06:00 9.98 ir
13/07/17 Astoņi Lauma 8.01 48:47 135 06:05 9.85 ir
11/07/17 septiņi Lauma 7.01 43:10 146 06:09 9.74 ir
29.03
01/07/17 PČ 24h Lauma 127.47 24:00:00 124 11:17 5.31 ir
28/06/17 desmit un suns Lauma 10.33 1:05:16 147 06:19 9.50 ir
137.80
17/06/17 Stokholmas eco trail Lauma 43.89 5:23:08 146 07:21 8.15 ir
16/06/17 Latvijas kontūra Stokholmā Lauma 8.11 57:29 125 07:05 8.47 ir
15/06/17 Prāmja skrejceļš Lauma 1.00 05:25 05:25 11.08 ir
13/06/17 deviņi ar astīti Lauma 9.18 55:25 137 06:02 9.94 ir
62.18
09/06/17 četrpadsmit Lauma 14.01 1:23:58 142 05:59 10.01 ir
08/06/17 piecpadsmit Lauma 15.01 1:26:41 144 05:46 10.39 ir
05/06/17 Vienpadsmit Lauma 11.01 1:07:56 136 06:10 9.72 ir
40.03
01/06/17 Gandrīz izbēgu no lietusgāzes un krusas Lauma 11.01 1:09:57 133 06:21 9.44 ir
31/05/17 vakara pievārtē Lauma 9.31 56:57 147 06:07 9.81 ir
20.32
27/05/17 Stirnu buks Madonā 2.p Lauma 9.67 1:05:04 161 06:43 8.92 ir
9.67
20/05/17 Beskidzki Topor Lauma 43.00 6:08:31 151 08:34 7.00 ir
43.00
14/05/17 Lattelecom Rīgas (pus)maratons 2017 TT Lauma 21.10 1:58:27 150 05:36 10.69 ir
09/05/17 Ielas vakarā Lauma 9.44 57:38 135 06:06 9.83 ir
08/05/17 Vakars saulrietā Lauma 12.01 1:09:41 135 05:48 10.34 ir
42.55
03/05/17 Sigulda, Baltezers - Jugla Lauma 16.10 1:37:15 137 06:02 9.93 ir
02/05/17 Asics Rīgas tiltu skrējiens 7.p Lauma 9.25 48:41 152 05:15 11.40 ir
01/05/17 Smecerītis Lauma 10.54 1:17:25 139 07:20 8.17 ir
35.89
28/04/17 apkārt rajonam Lauma 10.27 1:05:19 129 06:21 9.43 ir
25/04/17 Asics Rīgas tiltu skrējiens 6.p Lauma 10.19 49:15 161 04:49 12.41 ir
20.46
22/04/17 mežā ar suni Lauma 7.36 45:32 142 06:11 9.70 ir
21/04/17 skrejceļš Lauma 3.50 33:00 09:25 6.36 ir
18/04/17 Asics Rīgas tiltu skrējiens 5.p Lauma 10.23 49:30 164 04:50 12.40 ir
21.09
11/04/17 Asics Rīgas tiltu skrējiens 4.p Lauma 10.28 49:47 163 04:50 12.39 ir
10.28
09/04/17 Ieskrien mežā + SB poligons Lauma 10.00 1:03:57 147 06:23 9.38 ir
08/04/17 Rēzeknes pusmaratons TT Lauma 21.10 1:59:51 152 05:40 10.56 ir
06/04/17 pavasaris drīz nāks Lauma 10.01 1:02:01 132 06:11 9.68 ir
04/04/17 Rīgas tiltu skrējiens 3.k Lauma 10.28 50:23 164 04:54 12.24 ir
51.39
26/03/17 Liepājas pusmaratons TT Lauma 21.10 1:59:02 150 05:38 10.63 ir
24/03/17 vakars pilsētā Lauma 10.04 1:03:06 137 06:17 9.55 ir
21/03/17 vakars pa gaismu Lauma 6.01 36:04 06:00 10.00 ir
37.15
19/03/17 Noskrien ziemu 4.p Lauma 10.04 52:21 163 05:12 11.51 ir
19/03/17 ie/at-sildīšanās Lauma 1.55 11:45 140 07:34 7.91 ir
18/03/17 Ju-Me-Dr-Me-Ju Lauma 16.01 1:36:39 144 06:02 9.94 ir
27.60
12/03/17 Kad pūpoli zied Lauma 11.01 1:05:04 05:54 10.15 ir
11/03/17 Sveikuļu nakts Lauma 14.00 1:28:26 162 06:19 9.50 ir
10/03/17 Desmit Lauma 10.29 1:02:54 139 06:06 9.82 ir
35.30
05/03/17 ej projām ziema, es gaidu pavasari Lauma 7.01 41:53 148 05:58 10.04 ir
04/03/17 ir dzīve pēc ultras Lauma 7.01 43:31 143 06:12 9.67 ir
14.02
22/02/17 Transgrancanaria 360º Lauma 265.00 100:47:45 22:49 2.63 ir
21/02/17 Okeāna rīts Lauma 10.02 59:09 142 05:54 10.16 ir
275.02
19/02/17 Rīts gar okeānu Lauma 10.00 1:02:49 134 06:16 9.55 ir
18/02/17 TGC 360 pirmie kilometri Lauma 20.00 2:11:11 142 06:33 9.15 ir
17/02/17 Svelme nekurienes vidū Lauma 13.00 1:41:47 155 07:49 7.66 ir
16/02/17 Labrīt pie okeāna Lauma 7.00 46:47 146 06:41 8.98 ir
50.00
12/02/17 svētdienis Lauma 8.50 53:12 147 06:15 9.59
11/02/17 vējš azotē Lauma 7.01 47:05 147 06:42 8.93
09/02/17 Uijā, uijā pilnmēness Lauma 10.40 1:03:59 134 06:09 9.75 ir
07/02/17 kad lauskis ciemos atnācis Lauma 5.55 31:48 143 05:43 10.47 ir
06/02/17 Mēness starus stīgo Lauma 7.20 45:30 137 06:19 9.49 ir
38.66
05/02/17 Uz pārbrauktuves spīd saule Lauma 23.01 2:20:20 153 06:05 9.84 ir
02/02/17 vakarā Lauma 14.01 1:31:09 148 06:30 9.22
31/01/17 Desmit Lauma 10.20 59:52 144 05:52 10.22 ir
47.22
29/01/17 Desmit Lauma 10.01 59:43 148 05:57 10.06 ir
23/01/17 apkārt mežam Lauma 7.41 44:35 138 06:00 9.97 ir
17.42
15/01/17 Noskrien ziemu 2.p Lauma 7.72 50:19 161 06:31 9.21 ir
7.72
07/01/17 Pääsküla raba maraton Lauma 42.10 4:09:42 157 05:55 10.11 ir
03/01/17 Visi koki — balti, eju pa mežu, nevaru saprast, kur koks, kur baltā diena. Lauma 7.01 43:09 147 06:09 9.75 ir
02/01/17 Autiem klāta baltu baltiem, zeme maigu miegu snauž. Lauma 11.01 1:04:34 146 05:51 10.23 ir
60.12
31/12/16 Vecgada vakarā vajag dziedāt un dancot, tad visu nākamo gadu klāsies labi. Lauma 8.01 49:26 147 06:10 9.72 ir
29/12/16 Gaismas spēles ziemas mijkrēslī Brīvdabas muzejā Lauma 10.01 1:04:49 143 06:28 9.27 ir
27/12/16 Pūti, pūti, vēja māte, Remdējies vakarā! Jau tu pūti visu dienu, Visus mežus locīdama. Lauma 10.00 59:09 143 05:54 10.14 ir
28.02
25/12/16 Te rupja balss no meža malas sauc: Tas tak par daudz! Vai tā jūs manim gaiņājat no mājām žagatas? Lauma 10.05 1:05:23 150 06:30 9.22 ir
24/12/16 Salatēvs pār laukiem brien, Slēpju nav, jo zāle vien. Pāri plecam vilku vāle Eglīte un jāņu zāle. Lauma 7.00 42:35 147 06:05 9.86 ir
23/12/16 Astoņi kustoņi Lauma 8.00 49:48 143 06:13 9.64 ir
25.05
13/12/16 tur aiz mākoņiem ir pilnmēness Lauma 9.54 56:17 143 05:53 10.17 ir
9.54
11/12/16 izlūkot veikalus Lauma 11.05 1:07:15 149 06:05 9.86 ir
08/12/16 starp lietus lāsēm Lauma 7.01 39:31 151 05:38 10.64 ir
06/12/16 Pusmēnesi lūkoties Lauma 8.10 46:42 149 05:45 10.41 ir
26.16
04/12/16 ziema pilsētā Lauma 11.00 1:11:45 146 06:31 9.20 ir
29/11/16 ielas klātas balti baltas Lauma 9.62 57:19 144 05:57 10.07 ir
20.62
27/11/16 slapjdranķī, lai tik snieg Lauma 12.10 1:13:59 145 06:06 9.81 ir
22/11/16 vēji vakarā Lauma 7.38 41:19 153 05:35 10.72 ir
19.48
10/11/16 Ai ziema, ziema Lauma 7.10 41:59 145 05:54 10.15 ir
08/11/16 Ziemīgais vakars Lauma 4.77 27:12 148 05:42 10.52 ir
11.87
29/10/16 Haanja ultra Lauma 47.00 6:14:22 144 07:57 7.53 ir
25/10/16 miglas vāli Lauma 2.93 16:21 134 05:34 10.75 ir
49.93
23/10/16 Ozolnieku pusmaratons 5km Lauma 5.00 22:26 161 04:29 13.37 ir
22/10/16 Stirnu buks - zaķītis Lauma 12.50 1:07:10 166 05:22 11.17 ir
18/10/16 vakara tumsiņa Lauma 3.04 16:42 138 05:29 10.92 ir
20.54
13/10/16 visas zvaigznes debesīs Lauma 11.38 1:07:23 138 05:55 10.13 ir
11/10/16 vakarnieks Lauma 3.09 16:33 05:21 11.20 ir
14.47
09/10/16 Estonian Wilderness marathon Lauma 42.93 4:48:42 153 06:43 8.92 ir
08/10/16 Siguldas pusmaratons Lauma 10.50 51:31 166 04:54 12.23 ir
53.43
27/09/16 Ko tie kraukļi kraucināja Lauma 21.01 2:01:10 142 05:46 10.40 ir
21.01
24/09/16 Stirnu buks - zaķis Lauma 13.39 1:13:32 163 05:29 10.93 ir
22/09/16 Astoņi Lauma 8.01 48:07 132 06:00 9.99 ir
21.40
18/09/16 Valmieras maratons Lauma 12.22 1:00:10 154 04:55 12.19 ir
12.22
11/09/16 We run Riga Lauma 10.00 57:23 144 05:44 10.46 ir
08/09/16 Desmit Lauma 10.01 58:02 142 05:47 10.35 ir
06/09/16 Pilsētas ielas Lauma 8.13 46:48 140 05:45 10.42 ir
28.14
04/09/16 Priekuļu trail Lauma 8.14 53:31 162 06:34 9.13 ir
8.14
24/08/16 UTMB TDS Lauma 119.00 32:25:23 120 16:20 3.67 ir
22/08/16 Uz Le Brevent pa vertikālo kilometru Lauma 16.32 4:29:55 126 16:32 3.63 ir
135.32
21/08/16 vakars Chamonix Lauma 7.35 43:51 134 05:57 10.06 ir
20/08/16 līdz ledājam - Berghaus Bareger Lauma 17.73 3:52:14 110 13:05 4.58 ir
25.08
13/08/16 Kuldīgas pusmaratons Lauma 10.50 53:00 168 05:02 11.89 ir
13/08/16 iesildīšanās Lauma 1.35 07:58 142 05:54 10.17 ir
10/08/16 Vasaras vēsais lietutiņš Lauma 11.42 1:06:08 138 05:47 10.36 ir
23.27
06/08/16 Cēsu Eco Trail Lauma 8.10 44:44 162 05:31 10.86 ir
03/08/16 Sējas dižozols Lauma 9.01 57:51 130 06:25 9.34 ir
02/08/16 Dārzkalniņš Lauma 7.01 41:26 134 05:54 10.15 ir
24.12
30/07/16 Talsu paugurienes stirnu bukks - zaķis Lauma 13.15 1:23:53 159 06:22 9.41 ir
28/07/16 Vara-vara-vīksne Lauma 15.01 1:27:41 141 05:50 10.27 ir
28.16
23/07/16 Iesildīšanās Lauma 1.53 09:23 131 06:07 9.78 ir
23/07/16 Jelgavas pusmaratons Lauma 10.50 52:36 158 05:00 11.98 ir
21/07/16 Mazu brītiņ vakarā Lauma 8.01 46:01 138 05:44 10.44 ir
20.04
17/07/16 Ik rītiņu sīkas rikšas Lauma 20.02 2:02:25 137 06:06 9.81 ir
15/07/16 pilsētā lietum pa pēdām Lauma 13.01 1:09:07 149 05:18 11.29 ir
13/07/16 Viena vāvere te pa koku dejo. Lauma 10.01 1:00:07 134 06:00 9.99 ir
12/07/16 Savu pilsētu šorīt es vēroju caur autobusa logu Lauma 10.01 57:54 139 05:47 10.37 ir
53.05
04/07/16 Ar puķēm Lauma 5.02 28:59 131 05:46 10.39 ir
5.02
02/07/16 Jūrmalas krāsu skrējiens Lauma 10.50 53:41 168 05:06 11.74 ir
01/07/16 Parciņš Lauma 3.04 17:36 133 05:47 10.36 ir
30/06/16 Ap to savu rajoniņu Lauma 13.01 1:20:10 134 06:09 9.74 ir
28/06/16 Ai, pilsēta, pilsēta Lauma 3.14 19:09 127 06:05 9.84 ir
29.69
25/06/16 Stirnu buka Zaķītis Lauma 14.00 1:36:24 158 06:53 8.71 ir
23/06/16  Lec, saulīte, spīdi spoži! Rotā puisi, rotā meitu (ĪNS) Lauma 11.51 1:09:31 109 06:02 9.93 ir
25.51
19/06/16 Ventspils maratons Lauma 10.55 53:34 161 05:04 11.82 ir
19/06/16 iesildoties Lauma 1.01 06:25 129 06:21 9.44 ir
16/06/16 Jasmīnu smarža Lauma 13.02 1:16:45 144 05:53 10.18 ir
24.58
05/06/16 Liepājas pusmaratons Lauma 10.41 51:51 156 04:58 12.05 ir
04/06/16 Zilonis tumsā 2016 Lauma 9.67 50:37 161 05:14 11.46 ir
03/06/16 iebridu papelēs Lauma 5.03 29:08 142 05:47 10.36 ir
31/05/16 vakara sutoņa Lauma 7.47 42:54 145 05:44 10.45 ir
32.58
28/05/16 Sandnes. Fjordi. Vakars Lauma 8.20 50:04 149 06:06 9.83
26/05/16 Starp ielām pilsētā Lauma 8.00 46:13 137 05:46 10.39 ir
24/05/16 saulains vakars Lauma 3.10 16:59 135 05:28 10.95 ir
19.30
20/05/16 ceriņu ielenkumā Lauma 8.01 46:45 143 05:50 10.28 ir
19/05/16 vien' maz' līkumiņ' Lauma 5.01 26:54 144 05:22 11.17 ir
17/05/16 krāsainas debesis Lauma 3.07 15:57 143 05:11 11.55 ir
16.09
15/05/16 Lattelecom Rīgas maratons TT Lauma 21.10 1:59:58 152 05:41 10.55 ir
10/05/16 Otrdienis vakarā Lauma 3.00 17:04 135 05:41 10.55 ir
24.10
08/05/16 Vakara saulē Lauma 16.01 1:39:26 134 06:12 9.66 ir
08/05/16 StairTrack to Skyline Lauma 0.50 03:31 152 07:02 8.53 ir
05/05/16 Pār pilsētas torņiem saule spīd Lauma 6.08 35:53 136 05:54 10.17 ir
03/05/16 Saulrietā varavīksne mākoņu spēlēs Lauma 8.32 47:47 138 05:44 10.45 ir
30.91
25/04/16 Pilsētas ielas Lauma 10.01 1:02:20 133 06:13 9.64 ir
10.01
23/04/16 Aizkraukles pusmaratons Lauma 5.30 26:29 161 04:59 12.01 ir
23/04/16 Pilsētas apskate Lauma 2.75 17:16 142 06:16 9.56 ir
20/04/16 skrejceļš Lauma 4.00 ir
19/04/16 Kamēr svēteļi pār Svēti baltos spārnos slīd Lauma 11.01 59:45 146 05:25 11.06 ir
23.06
15/04/16 piektdienas piečuks prātīgais Lauma 5.38 29:35 143 05:29 10.91 ir
5.38
10/04/16 Mežaparka TT koptreniņš Lauma 15.47 1:34:32 140 06:06 9.82 ir
09/04/16 Rēzeknes pusmaratons Lauma 10.50 51:12 164 04:52 12.30 ir
09/04/16 pirms pakalniņi Lauma 4.55 29:26 141 06:28 9.28 ir
07/04/16 Magnēts Berģi - sekoju līdzi Lauma 5.81 51:21 146 08:50 6.79 ir
07/04/16 vakariņš Lauma 1.93 10:56 138 05:39 10.59 ir
05/04/16 Aprīlim, aprīlim pilieni nav kā līdz šim. Kopā pilieni pa trim, trim tirim aprīlim Lauma 9.87 54:26 150 05:30 10.88 ir
05/04/16 Magnēts Šmerlis Lauma 4.19 42:26 147 10:07 5.92 ir
52.32
03/04/16 izskriet RV sagurumu Lauma 5.01 29:52 142 05:57 10.06 ir
31/03/16 pievakares parki Lauma 5.60 33:35 147 05:59 10.00 ir
29/03/16 miedziņ, miedziņ prom Lauma 9.63 1:00:34 138 06:17 9.54 ir
20.24
22/03/16 Burvīgs pilnmēness un brīnišķīgas krāsu spēles debesīs Lauma 5.18 30:24 145 05:52 10.22 ir
5.18
17/03/16 Šķiet es dzirdu pavasari, katru reizi, kad ieklausos Lauma 20.00 2:09:49 139 06:29 9.24 ir
20.00
12/03/16 Noskrien ziemu 3.p Lauma 8.23 52:06 164 06:19 9.48 ir
10/03/16 līdz veikala slēgšanai astoņas minūtes Lauma 6.01 31:52 148 05:18 11.32 ir
10/03/16 vējelis pretī pūš Lauma 7.01 41:24 147 05:54 10.16 ir
08/03/16 slapjais sniegputenis Lauma 3.11 18:07 141 05:49 10.30 ir
24.36
06/03/16 vēlais vakara vējā Lauma 3.19 19:02 137 05:57 10.06 ir
06/03/16 pavasara putnus meklējot Lauma 14.22 1:23:13 147 05:51 10.25 ir
04/03/16 Kad Ziedoņdārzā ābeles ziedēs Lauma 4.24 25:47 135 06:04 9.87 ir
03/03/16 Ārā būs labs laiks tāpēc meklē skaistu mežu Lauma 17.00 1:53:04 144 06:39 9.02 ir
29/02/16 vienu jau var Lauma 1.00 06:05 06:05 9.86 ir
39.65
25/02/16 laižos pilsētai cauri Lauma 12.01 1:19:10 137 06:35 9.10
23/02/16 kaut kāds gaisa gabals Lauma 9.07 1:00:21 133 06:39 9.02
21.08
20/02/16 Noskrien ziemu 2.p Lauma 8.00 48:53 162 06:06 9.82 ir
18/02/16 Pag, es nesteidzos Lauma 1.56 08:01 141 05:08 11.68
18/02/16 Lietus mājup Lauma 1.55 09:13 137 05:56 10.09
16/02/16 laižos pļavām pāri Lauma 13.06 1:25:41 129 06:33 9.15
24.17
14/02/16 Veikala cilpa bez panākumiem Lauma 7.12 43:56 138 06:10 9.72
12/02/16 Saule spīd un lietus maigs, ūdens zaigo, svaigs ir  gaiss Lauma 5.02 27:31 148 05:28 10.95
09/02/16 Noriet saule sarkansārti zelta liesmas logos spīd Lauma 18.18 2:03:18 136 06:46 8.85
30.32
06/02/16 Tur aiz purva miglas ķēmi lēnam ceļas, lēnam mīlst, aizlīgo pār kalnu mēmi un, aiz meža zūd un dilst Lauma 20.76 2:01:12 151 05:50 10.28 ir
04/02/16 Ziemas saule stariem saltiem, tumšās sila priedes glauž Lauma 10.04 1:07:55 129 06:45 8.87
30.80
31/01/16 putnu čivināšana visapkārt Lauma 7.50 43:21 151 05:46 10.38 ir
26/01/16 Kad lietus kausē sniegu un slēpot nevar, tad jāskrien. Lauma 10.18 1:02:58 141 06:11 9.70 ir
17.68
14/01/16 Notrausu pērnos igaunīšu putekļus no kedām Lauma 3.16 19:21 06:07 9.80 ir
3.16
03/01/16 Sniegs līdz ceļiem un Brīvdabas muzejs Lauma 9.43 1:24:45 08:59 6.68
31/12/15 Viimase Öö Unistus Lauma 90.20 11:54:15 138 07:55 7.58 ir
29/12/15 turpu šurpu Lauma 3.08 16:56 139 05:29 10.91 ir
28/12/15 negantieks sals, kož Lauma 10.09 1:11:03 136 07:02 8.52 ir
112.80
27/12/15 Ne pirmo gadu jau pa šīm vietām slājam Lauma 24.41 2:24:24 145 05:54 10.14 ir
25/12/15 Sēžu uz palodzes, čaloju ar minkām, plāns uz vakaru kārtībā Lauma 30.50 3:04:52 145 06:03 9.90 ir
24/12/15 Salatēvs pār laukiem brien, Slēpju nav, jo zāle vien Pāri plecam vilku vāle Eglīte un jāņu zāle. Lauma 20.04 2:01:27 146 06:03 9.90 ir
23/12/15 pūti, pūti šurp vējiņ Lauma 13.45 1:21:29 140 06:03 9.90 ir
22/12/15 viens plus viens ir divi Lauma 3.06 17:59 135 05:52 10.21 ir
91.46
20/12/15 apmākusies diena Lauma 10.01 58:52 144 05:52 10.20 ir
19/12/15 pasts Lauma 6.07 34:29 143 05:40 10.56 ir
17/12/15 ar enģeļa spārniem pilsētā Lauma 11.01 1:06:32 142 06:02 9.93 ir
15/12/15 starp sniegpārslām Lauma 3.16 17:35 144 05:33 10.78 ir
30.25
13/12/15 Kad ballētāji mostas Lauma 10.12 1:03:04 138 06:13 9.63 ir
12/12/15 Sestdienis Lauma 5.03 30:25 135 06:02 9.92 ir
11/12/15 Pievārtē dauzoties Lauma 2.03 12:30 135 06:09 9.74 ir
10/12/15 Kad sētnieki mostas jeb egļu ceļš Lauma 12.08 1:12:21 140 05:59 10.02 ir
09/12/15 piecelties un paskatīties Lauma 1.75 10:43 144 06:07 9.80 ir
08/12/15 saule aust Lauma 2.00 12:38 145 06:19 9.50 ir
07/12/15 rīti, rīti Lauma 1.75 10:53 142 06:13 9.65 ir
34.76
06/12/15 7. Mispo (pus)maratons Lauma 21.10 1:47:44 160 05:06 11.75 ir
05/12/15 6. Mispo pusmaratons Lauma 21.10 1:48:35 168 05:08 11.66 ir
04/12/15 miedziņš Lauma 4.08 24:35 135 06:01 9.96 ir
03/12/15 rīti, rīti Lauma 3.03 18:00 139 05:56 10.10 ir
02/12/15 rīts Lauma 1.80 10:48 145 06:00 10.00 ir
01/12/15 tumsa Lauma 3.08 17:35 141 05:42 10.51 ir
30/11/15 labrītiņ Lauma 1.70 10:30 138 06:10 9.71 ir
55.88
29/11/15 vakara vējā Lauma 10.26 1:01:02 141 05:56 10.09 ir
28/11/15 s-diena Lauma 3.02 18:51 141 06:14 9.61 ir
27/11/15 Aizskatījos pilnmēnesi Lauma 22.01 2:17:34 141 06:15 9.60 ir
26/11/15 līdz veikalam aizlidinājos Lauma 7.57 44:41 131 05:54 10.16 ir
25/11/15 snieg! Lauma 2.08 12:48 137 06:09 9.75 ir
24/11/15 ceļā Lauma 3.19 18:08 128 05:41 10.56 ir
23/11/15 Labrīt, Rīga Lauma 1.82 10:49 145 05:56 10.10 ir
49.95
22/11/15 Labrīt, Brisele Lauma 7.45 46:01 142 06:10 9.71 ir
21/11/15 Vakarā Lauma 1.85 11:49 140 06:23 9.39 ir
20/11/15 miedziņš Lauma 2.13 12:34 139 05:53 10.17 ir
19/11/15 starotājiem gar maliņu Lauma 3.50 22:01 145 06:17 9.54 ir
18/11/15 Iededzies par Latviju Lauma 8.48 48:03 149 05:39 10.59 ir
17/11/15 pa peļķēm Lauma 7.58 46:52 141 06:10 9.70 ir
16/11/15 ap nullīti Lauma 2.11 11:50 139 05:36 10.70 ir
33.10
15/11/15 Kastīte Lauma 4.11 23:23 134 05:41 10.55 ir
14/11/15 Gandrīz Patriots Lauma 12.02 1:13:11 150 06:05 9.85 ir
13/11/15 lapas zem kājam Lauma 3.02 18:51 140 06:14 9.61 ir
12/11/15 Laternas, bruģis Lauma 3.04 18:43 142 06:09 9.75 ir
11/11/15 XXVII Polijas Neatkarības dienas skrējiens Lauma 10.00 48:11 166 04:49 12.45 ir
10/11/15 Pam-pa-ram Lauma 1.87 10:29 129 05:36 10.70 ir
09/11/15 Lija, lietus lija to dieniņu Lauma 7.49 47:08 133 06:17 9.53 ir
41.55
08/11/15 Liepājas ezera laipa Lauma 1.01 06:08 125 06:04 9.88 ir
07/11/15 EKOmaratonas’15 ruduo Lauma 21.10 2:13:05 147 06:18 9.51 ir
06/11/15 ik rītiņu... Lauma 3.01 17:58 138 05:58 10.05 ir
05/11/15 uz/no Spartu Lauma 10.03 1:08:11 134 06:47 8.83 ir
04/11/15 Samiegojies dūmakains rīts Lauma 3.05 18:04 140 05:55 10.13 ir
03/11/15 pustumsīga pilsēta Lauma 7.01 44:38 129 06:22 9.42 ir
02/11/15 piemājas Lauma 5.20 32:45 140 06:17 9.53 ir
50.41
01/11/15 ūdens... Lauma 2.38 16:36 06:58 8.60 ir
31/10/15 Haanja 100 Lauma 100.00 12:44:05 159 07:38 7.85 ir
30/10/15 Labrīt, rudens! Lauma 3.55 20:27 144 05:45 10.42 ir
29/10/15 Teikas aplis Lauma 10.00 1:08:09 124 06:48 8.80 ir
28/10/15 Vakariņš Lauma 4.80 30:15 136 06:18 9.52 ir
27/10/15 Labrīt, Venēcija Lauma 10.02 1:05:25 133 06:31 9.19 ir
26/10/15 Venecijas rīta riņķi Lauma 5.10 35:07 124 06:53 8.71 ir
135.85
25/10/15 Venēcijas marstons 10km Lauma 10.71 50:54 168 04:45 12.62 ir
24/10/15 Venēcija rīta pusē Lauma 6.76 41:48 136 06:11 9.70 ir
23/10/15 Venēcijas rīts Lauma 5.32 40:36 136 07:37 7.86 ir
20/10/15 vakara pļāpas parkos Lauma 12.11 1:10:43 139 05:50 10.27 ir
34.90
18/10/15 Ozolnieku pusmaratons Lauma 21.10 1:50:10 160 05:13 11.49 ir
15/10/15 vakars ar paklājiņu padusē Lauma 11.65 1:09:31 140 05:58 10.06 ir
32.75
10/10/15 Siguldas pusmaratons TT Lauma 21.10 1:59:51 150 05:40 10.56 ir
08/10/15 pilsētas vakara saule Lauma 10.02 55:51 139 05:34 10.76 ir
06/10/15 Noriņkojos Lauma 5.17 30:27 138 05:53 10.19 ir
36.29
24/09/15 Līdz Biķeru baznīcai Lauma 11.01 1:08:13 135 06:11 9.68 ir
24/09/15 Nakts Magnēts Biķeru baznīca - palīgorientēšanās, maldīšanās Lauma 3.83 42:47 128 11:10 5.37
14.84
20/09/15 Valmieras (pus)maratons TT Lauma 21.10 2:09:54 143 06:09 9.74
17/09/15 Nakts Magnēts Langstiņos - sekoju līdzi Lauma 4.42 34:25 147 07:47 7.71 ir
17/09/15 Pilsētas īsais Lauma 2.38 15:09 137 06:21 9.43 ir
15/09/15 Uz apņemšanās sienu Lauma 9.01 52:07 140 05:47 10.37 ir
36.91
13/09/15 Viļņas maratons TT Lauma 42.20 4:29:48 150 06:23 9.38
08/09/15 Mežaparks Lauma 10.10 58:53 147 05:49 10.29 ir
52.30
03/09/15 Vakara pļāpas Lauma 9.01 51:01 140 05:39 10.60 ir
9.01
30/08/15 Baltijas Baso pēdu ultramaratons Lauma 53.00 5:55:03 155 06:41 8.96 ir
26/08/15 Papļāpāsim? Lauma 17.10 1:38:12 150 05:44 10.45 ir
70.10
22/08/15 Tievatupa - Kiilopää Lauma 19.01 2:07:31 134 06:42 8.94 ir
21/08/15 Rīta pļāpas Teivatupa Lauma 2.67 15:37 138 05:50 10.26 ir
18/08/15 pļāpas vakarā Lauma 10.54 1:01:27 140 05:49 10.29 ir
17/08/15 Divi tilti pilsētā Lauma 22.37 2:25:45 135 06:30 9.21 ir
54.59
15/08/15 Kuldīgas pusmaratons Lauma 21.10 1:57:02 160 05:32 10.82
10/08/15 Pilsēta caur veloveikaliem Lauma 13.20 1:20:49 136 06:07 9.80 ir
34.30
08/08/15 Labrīt Lauma 2.03 12:20 06:04 9.88
06/08/15 Langstiņi ar plunkšķi Lauma 14.07 1:20:11 146 05:41 10.53 ir
03/08/15 Vakarnieks Lauma 16.20 1:35:27 140 05:53 10.18 ir
32.30
28/07/15 Pēc pilnīgs sviesc trauciņa Lauma 6.70 38:56 136 05:48 10.33 ir
6.70
25/07/15 Talsu pauguraines Stirnu buks Lauma 34.14 4:27:38 160 07:50 7.65 ir
34.14
14/07/15 Pilsētas vakars Lauma 9.08 55:32 131 06:06 9.81 ir
9.08
11/07/15 Jelgavas pusmaratons TT Lauma 21.10 2:00:13 144 05:41 10.53
08/07/15 Pilsēta, tirgus, dzsv atklāšanas pasākums Lauma 5.02 31:18 138 06:14 9.62 ir
26.12
26/06/15 Marathon du Mont Blant Lauma 90.20 24:23:17 128 16:13 3.70 ir
24/06/15 Šamonī, +25c Lauma 6.39 38:40 140 06:03 9.92 ir
96.59
21/06/15 Līdz Le Brevent un pa sniegu Lauma 18.01 4:45:55 135 15:52 3.78 ir
19/06/15 Vakars Šamonī Lauma 5.16 30:15 148 05:51 10.23 ir
17/06/15 Varšavas piecītis Lauma 5.01 28:16 139 05:38 10.63 ir
15/06/15 Zaķi salā nav Lauma 16.14 1:46:55 128 06:37 9.06 ir
44.32
13/06/15 Laulasmaa kūrorts Lauma 63.30 15:19:17 14:31 4.13 ir
10/06/15 Pilsētas vakars Lauma 22.18 2:21:49 06:23 9.38 ir
85.48
06/06/15 Zilonis tumsā Lauma 8.70 47:01 163 05:24 11.10 ir
04/06/15 Vakars pilsētā Lauma 17.20 1:40:16 147 05:49 10.29 ir
25.90
29/05/15 Ģiplas baltā kāpa Lauma 5.40 31:51 05:53 10.17 ir
29/05/15 līdz velosipedistam Lauma 3.02 16:55 05:36 10.71 ir
8.42
20/05/15 Teikas aplis Lauma 15.01 1:24:08 150 05:36 10.70 ir
15.01
17/05/15 Lattelecom Rīgas maratons TT Lauma 42.20 4:29:42 156 06:23 9.39
12/05/15 Magnēts Kalngalē - grūti sekot līdzi Lauma 5.44 37:18 156 06:51 8.75 ir
47.64
07/05/15 Magnēts Muceniekos ar trajektorijas koriģēšanu Lauma 5.92 37:54 150 06:24 9.37 ir
05/05/15 līdz tam mežam un atpakaļ Lauma 19.09 1:54:06 148 05:58 10.04 ir
05/05/15 Juglas apļi 1k Lauma 3.60 17:07 165 04:45 12.62
28.61
01/05/15 SS7 TT Lauma 7.35 44:41 146 06:04 9.87
30/04/15 Pilsētas ielas Lauma 17.09 1:49:52 136 06:25 9.33 ir
27/04/15 Gliemezis ar asti Lauma 29.15 2:54:21 145 05:58 10.03 ir
53.59
21/04/15 Mežaparka skrējējs ar balonu un asti Lauma 17.05 1:47:33 133 06:18 9.51 ir
17.05
18/04/15 Mazā kontūra ar astīti Lauma 24.10 2:38:48 143 06:35 9.11 ir
16/04/15 Teikas začītis ar asti Lauma 11.44 1:08:31 135 05:59 10.02 ir
14/04/15 Ap Mežaparku Lauma 8.61 54:41 133 06:21 9.45 ir
14/04/15 Magnēts Mežaparks - brikšņi ar asfalta botām Lauma 6.01 48:08 138 08:00 7.49 ir
50.16
10/04/15 Pilsēta un tilti Lauma 22.00 2:34:25 133 07:01 8.55 ir
06/04/15 Rēzeknes pusmaratons TT Lauma 21.10 1:59:51 154 05:40 10.56
43.10
04/04/15 Ir dzīve pēc RV Lauma 7.22 43:37 142 06:02 9.93 ir
7.22
28/03/15 Skrējiensoļojums Rīga - Valmiera Lauma 107.00 15:20:53 150 08:36 6.97
107.00
19/03/15 Pilsētas zaļā gaisma Lauma 11.47 1:13:31 139 06:24 9.36 ir
17/03/15 pusdienlaika saulainais līdz veikalam Lauma 8.09 48:46 144 06:01 9.95 ir
19.56
15/03/15 Brescia Art pusmaratons Lauma 21.10 1:49:42 152 05:11 11.54
13/03/15 Līdz Gardas ezeram Lauma 5.08 32:11 139 06:20 9.47 ir
26.18
07/03/15 Langstiņu mūža meži Lauma 24.11 2:44:39 148 06:49 8.79 ir
24.11
01/03/15 Lidmašīnas lūkoties Lauma 29.01 3:18:05 136 06:49 8.79 ir
29.01
22/02/15 Apkārt Baltezeriem Lauma 20.04 2:07:28 145 06:21 9.43 ir
21/02/15 Jūrmalas "ziemas" sporta svētki Lauma 5.00 23:13 169 04:38 12.92 ir
19/02/15 Miglas vāli pilsētā Lauma 14.37 1:39:23 133 06:54 8.68 ir
39.41
15/02/15 Mežaparks. Saule. Ledus. Vējš. Prieks. Lauma 22.40 2:26:49 142 06:33 9.15 ir
10/02/15 iesildīšanās pirms Spartas Lauma 6.02 41:20 136 06:51 8.74 ir
28.42
05/02/15 īsais pa rajonu Lauma 3.25 21:18 137 06:33 9.15 ir
3.25
25/01/15 Zebrus ezera izlūkošana Lauma 14.00 1:47:16 139 07:39 7.83 ir
22/01/15 Pēc krūzītēm un kalendāriem Lauma 11.16 1:16:10 138 06:49 8.79 ir
25.16
18/01/15 Gar jūru Lauma 18.01 2:05:24 135 06:57 8.62 ir
17/01/15 Ķemeru pusīte lietainā dienā Lauma 21.27 2:17:10 152 06:26 9.30 ir
15/01/15 Ju-Te-Pu-Pļ-Dr-Me-Ju Lauma 16.19 1:56:11 150 07:10 8.36 ir
55.47
10/01/15 Gaismas spēles Brīvdabas muzejā Lauma 12.80 1:24:26 142 06:35 9.10 ir
12.80
04/01/15 dim, dim dimdim lieli svētki ziemelim Lauma 6.54 43:16 145 06:36 9.07 ir
31/12/14 Dream of the final night Lauma 75.20 11:54:47 155 09:30 6.31 ir
81.74
15/12/14 Apkārt mežiem Lauma 12.20 1:20:13 142 06:34 9.13 ir
12.20
13/12/14 Vējš norimies Lauma 15.32 1:43:57 139 06:47 8.84 ir
11/12/14 Vakarīgais ar sniegu Lauma 16.01 1:42:45 151 06:25 9.35 ir
31.33
29/11/14 Rīgas Rogainings Lauma 25.10 4:49:21 11:31 5.20 ir
26/11/14 Vakarā, vakarā. Lauma 13.51 1:21:22 145 06:01 9.96 ir
38.61
17/11/14 apLV #96 Lauma 29.02 2:59:06 144 06:10 9.72 ir
29.02
15/11/14 Patriots Lauma 20.95 2:07:27 154 06:05 9.86 ir
13/11/14 Vakarnieks Lauma 15.16 1:29:13 144 05:53 10.20 ir
36.11
06/11/14 Dūmakainā pilnmēness vakarā Lauma 12.13 1:15:50 136 06:15 9.60 ir
12.13
01/11/14 Haanja Ultra100 Footrace Lauma 100.00 12:43:46 150 07:38 7.86
100.00
25/10/14 Siguldas Kalnu Maratons Lauma 54.70 7:48:38 150 08:34 7.00 ir
21/10/14 īsais vakarnieks Lauma 9.08 56:11 135 06:11 9.70 ir
63.78
19/10/14 Ozolnieku pusmaratons Lauma 21.10 1:42:12 165 04:50 12.39
19/10/14 Ie/at-sildīšanās Lauma 3.02 16:58 148 05:37 10.68 ir
16/10/14 līdz ezeram, mežs Lauma 12.09 1:12:34 138 06:00 10.00 ir
16/10/14 Iesildīšanās treniņam Lauma 1.00 05:15 148 05:15 11.43 ir
37.21
11/10/14 Siguldas pusmaratons TT Lauma 21.10 1:59:46 148 05:40 10.57
07/10/14 tas baltais spožais uz dienvidiem ir mēness Lauma 18.12 1:46:40 141 05:53 10.19 ir
39.22
04/10/14 Siguldas pauguri un ieliņas Lauma 22.03 2:36:46 140 07:06 8.43 ir
02/10/14 Vakariņš pa gaismu Lauma 8.07 45:43 135 05:39 10.59 ir
30/09/14 Vakars pa rajonu Lauma 20.01 2:00:20 134 06:00 9.98 ir
50.11
28/09/14 Priekuļu trail Lauma 24.00 2:33:21 154 06:23 9.39 ir
27/09/14 Duatlons 2.d Lauma 1.60 07:21 165 04:35 13.06 ir
27/09/14 Duatlons 1d. Lauma 3.20 16:10 160 05:03 11.88 ir
25/09/14 Vakarnieks Lauma 12.68 1:13:16 137 05:46 10.38 ir
24/09/14 Siguldiņš tumsiņš Lauma 11.53 1:34:44 139 08:12 7.30 ir
23/09/14 mierīgais pāri peļķēm Lauma 8.33 50:27 139 06:03 9.91 ir
61.34
21/09/14 Valmieras pusmaratons TT Lauma 21.10 2:10:57 140 06:12 9.67
21/09/14 "atsildīšanās" jeb Ingas pēdējais aplis (TT) Lauma 9.22 47:09 160 05:06 11.73 ir
16/09/14 zvaigznēs lūkojoties Lauma 21.10 2:10:45 136 06:11 9.68 ir
51.42
14/09/14 NikeRigaRun TT Lauma 10.00 59:38 144 05:57 10.06
10.00
06/09/14 Vecāķu skrējiens Lauma 10.00 57:38 161 05:45 10.41 ir
04/09/14 Magnēts - riktīga sēņošana Lauma 4.18 58:31 128 13:59 4.29 ir
14.18
29/08/14 UTMB CCC Lauma 101.00 24:51:00 14:45 4.06 ir
25/08/14 Le Brevent - Chamonix Lauma 7.91 1:47:35 140 13:36 4.41 ir
108.91
20/08/14 viens īsais Lauma 4.01 19:12 167 04:47 12.53 ir
20/08/14 atskriešanās Lauma 1.00 06:45 143 06:45 8.89 ir
5.01
16/08/14 Stafetes #24h posms Lauma 22.53 2:22:41 153 06:19 9.47 ir
14/08/14 Magnēts - žļurkstošas botas un daudz brūklenāju Lauma 5.88 57:32 123 09:47 6.13 ir
28.41
09/08/14 Kuldīgas pusmaratons TT Lauma 21.10 1:59:30 155 05:39 10.59
06/08/14 Trešdienis Lauma 14.05 1:27:38 135 06:14 9.62 ir
05/08/14 pēc gurķiem un zirnīšiem Lauma 1.91 11:54 126 06:13 9.63 ir
37.06
02/08/14 Cēsis Eco trail 30km Lauma 31.77 3:38:59 151 06:53 8.70 ir
01/08/14 seš' māz', cik? Lauma 6.02 34:46 137 05:46 10.39 ir
30/07/14 vakariņš. tāpat silti. Lauma 16.01 1:42:21 139 06:23 9.39 ir
53.80
26/07/14 peldēšana koptreniņš ar skriešanas pauzēm (SSV 26) Lauma 27.04 2:55:55 149 06:30 9.22 ir
22/07/14 Siguldiņš Lauma 19.01 2:33:00 153 08:02 7.45 ir
22/07/14 uz/no mājām Lauma 3.24 19:11 148 05:55 10.13 ir
21/07/14 īsais Lauma 2.04 11:33 136 05:39 10.60 ir
51.33
15/07/14 uz apļiem Lauma 1.30 08:20 127 06:24 9.36 ir
15/07/14 Juglas apļi 6.k Lauma 3.60 16:58 161 04:42 12.73 ir
14/07/14 Vakarnieks Lauma 10.30 1:07:03 143 06:30 9.22
15.20
01/07/14 Juglas apļi 5.k Lauma 10.80 1:02:34 148 05:47 10.36 ir
01/07/14 uz/no apļiem Lauma 2.07 13:04 133 06:18 9.51 ir
12.87
27/06/14 Popes basais līdz jūrai Lauma 1.00 06:00 06:00 10.00
1.00
20/06/14 No saulrieta un uz.. kopā ceļš Lauma 14.53 1:35:08 145 06:32 9.16
14.53
14/06/14 Laulasmaa Ultra 2014 Lauma 84.40 11:49:03 135 08:24 7.14
12/06/14 Magnēts - līdzi brišana ar maldīšanos Lauma 10.13 1:52:57 120 11:09 5.38 ir
11/06/14 uz pasēdēšanu, pilnmēnesi lūkojoties atpakaļ Lauma 16.02 1:37:25 137 06:04 9.87 ir
110.55
07/06/14 Langstiņu īsā jūdze ar kulturāliem km gadatirgū Lauma 25.25 2:45:23 146 06:32 9.16 ir
05/06/14 NRR treniņš Lauma 4.09 25:23 134 06:12 9.67 ir
03/06/14 pretējā virzienā Lauma 3.60 23:33 138 06:32 9.17 ir
03/06/14 Juglas apļi 3.k Lauma 3.60 17:40 152 04:54 12.23 ir
36.54
27/05/14 Magnēts - palīgorientēšanās Lauma 7.31 53:43 150 07:20 8.17
7.31
20/05/14 lietū, lēkājot pa(pār) peļķēm Lauma 15.01 1:32:10 06:08 9.77 ir
15.01
18/05/14 NRM TT 2h15min Lauma 21.10 2:14:53 150 06:23 9.38
14/05/14 gar pieneņu pļavām Lauma 15.04 1:32:32 146 06:09 9.75 ir
36.14
11/05/14 pēc lietus, kad ceriņi smaržo Lauma 7.01 44:00 145 06:16 9.56 ir
08/05/14 Magnēts. Pakaļdzīšanās Lauma 5.15 35:33 153 06:54 8.69 ir
08/05/14 atskriešanās Lauma 2.10 13:56 141 06:38 9.04 ir
06/05/14 uz/no apļiem un vēl nedaudz Lauma 8.63 54:03 143 06:15 9.58 ir
06/05/14 Juglas apļi 1.k Lauma 3.60 16:38 165 04:37 12.99 ir
26.49
01/05/14 SS7 Lauma 7.35 34:07 166 04:38 12.93
7.35
27/04/14 Biķernieku pusmaratona 11km Lauma 11.00 53:10 166 04:50 12.41 ir
25/04/14 saulaina pēcpusdiena Lauma 15.23 1:34:31 144 06:12 9.67 ir
22/04/14 paskatījos kā citi skrien intervālus Lauma 11.04 1:08:27 138 06:12 9.68 ir
37.27
17/04/14 Tu skrien? Un kā tad es? Lauma 15.06 1:34:19 140 06:15 9.58 ir
16/04/14 tik cik kājas izkustināt Lauma 7.03 44:05 138 06:16 9.57 ir
22.09
13/04/14 Vīnes pusmaratons Lauma 21.10 1:47:37 164 05:06 11.76
11/04/14 Krakovas vakara piecītis Lauma 5.02 30:42 138 06:06 9.81 ir
10/04/14 ātrāk ir atskriet nekā atbraukt ar sabiedrisko Lauma 6.48 37:41 145 05:48 10.32 ir
08/04/14 galvas izvēdināšana Lauma 15.21 1:33:44 144 06:09 9.74 ir
47.81
06/04/14 Rēzeknes pusmaratons TT Lauma 21.10 2:09:24 155 06:08 9.78
05/04/14 tuvāko ceļu līdz Daugavai meklējot Lauma 14.01 1:31:37 146 06:32 9.18 ir
35.11
27/03/14 ap rajonu īsais Lauma 6.01 30:13 156 05:01 11.93 ir
27/03/14 atskriešanās Lauma 1.11 08:06 146 07:17 8.22 ir
25/03/14 TAN!Koptreniņš Lauma 21.14 2:15:02 143 06:23 9.39 ir
28.26
23/03/14 mežā sauss, ar suni Lauma 12.29 1:23:54 142 06:49 8.79 ir
22/03/14 ātrāk ir aizskriet Lauma 4.00 20:00 05:00 12.00 ir
21/03/14 silts vakara skrējiens Lauma 8.01 49:48 138 06:13 9.65 ir
24.30
16/03/14 vējaini saulainais Lauma 6.47 41:57 141 06:29 9.25 ir
11/03/14 vakarīgais Lauma 8.24 52:39 136 06:23 9.39 ir
14.71
08/03/14 no Mildas līdz Sīmanim Lauma 107.00 15:43:01 136 08:48 6.81
04/03/14 garāks aplītis Lauma 15.30 1:32:59 139 06:04 9.87 ir
122.30
01/03/14 Langstiņu garā jūdze Lauma 30.04 3:06:49 146 06:13 9.65 ir
25/02/14 tuvējie rajoni tumsiņā Lauma 17.03 1:53:35 140 06:40 9.00 ir
47.07
23/02/14 Mežaparks Lauma 14.12 1:30:23 133 06:24 9.37 ir
21/02/14 vakariņš ielās Lauma 12.14 1:19:22 141 06:32 9.18 ir
26.26
16/02/14 vakara pusmiglā Lauma 10.10 1:08:23 136 06:46 8.86 ir
15/02/14 neplānoti īss Lauma 2.10 12:28 132 05:56 10.11 ir
11/02/14 pelēkais vakars Lauma 8.15 52:04 144 06:23 9.39 ir
20.35
09/02/14 depiņš un lietus beigās Lauma 13.15 1:29:12 143 06:46 8.85 ir
13.15
02/02/14 pār aizputinātajiem deviņiem ezeriem Lauma 22.02 2:54:19 153 07:54 7.58 ir
22.02
21/01/14 gaidu ziemu ar sniegu Lauma 8.01 52:58 145 06:36 9.07 ir
8.01
19/01/14 Šodien ārā saulains laiks Lauma 13.01 1:26:09 138 06:37 9.06 ir
14/01/14 vakara pilnmēness Lauma 9.43 58:31 142 06:12 9.67 ir
22.44
12/01/14 Ju-Dr-Pu-Ve-Te-Me-Ju Lauma 19.05 2:00:45 145 06:20 9.47 ir
09/01/14 tumsā, zaķi noķēru... Lauma 8.14 53:33 137 06:34 9.12 ir
27.19
05/01/14 mežā Lauma 10.19 1:07:43 139 06:38 9.03 ir
03/01/14 ...jaunā gadā, jaunā gadā... Lauma 11.38 1:15:50 132 06:39 9.00 ir
31/12/13 Dream of the final night Lauma 58.20 8:36:10 130 08:52 6.77 ir
79.77
28/12/13 Ju-Te-Pu-Pļ-Dr-Ju Lauma 19.07 2:02:19 144 06:24 9.35 ir
24/12/13 mežā Lauma 8.44 53:09 142 06:17 9.53 ir
27.51
19/12/13 mēness aiz mākoņiem Lauma 15.09 1:34:38 140 06:16 9.57 ir
15.09
10/12/13 tik balts un kluss... Lauma 7.03 47:43 140 06:47 8.84 ir
7.03
07/12/13 2.Mispo Ziemas maratons Lauma 21.10 1:51:23 163 05:16 11.36
05/12/13 tumšais ar vēju Lauma 14.03 1:27:08 137 06:12 9.66 ir
35.13
30/11/13 dzestra diena un čaukstošas lapas Lauma 14.08 1:39:23 140 07:03 8.50 ir
28/11/13 vakars. lietus. peļķes Lauma 11.01 1:03:53 149 05:48 10.34 ir
25.09
21/11/13 kad lietus šļakstās sejā Lauma 9.04 55:55 138 06:11 9.70 ir
18/11/13 pilsēta tukša un klusa Lauma 22.05 2:21:40 140 06:25 9.34 ir
31.09
17/11/13 LV95 Ape - Zilupe Lauma 8.03 55:27 138 06:54 8.69
12/11/13 rajons Lauma 8.65 59:10 126 06:50 8.77 ir
16.68
09/11/13 līdz depo un lietus arī tika Lauma 9.06 49:13 149 05:25 11.05 ir
05/11/13 nedaudz līņā Lauma 10.11 1:04:34 134 06:23 9.39 ir
19.17
31/10/13 zigzagu pa rajonu Lauma 18.39 1:55:18 136 06:16 9.57 ir
28/10/13 pirms vētras Lauma 7.16 48:29 130 06:46 8.86 ir
25.55
27/10/13 līdz veikalam Lauma 6.43 42:38 131 06:37 9.05 ir
26/10/13 Siguldas kalnu maratons Lauma 55.86 9:38:57 140 10:21 5.79
24/10/13 vēlais vakars Lauma 10.01 1:03:57 134 06:23 9.39 ir
22/10/13 Ju-Me-Dr-Pu-Te-Ju Lauma 17.12 1:57:38 137 06:52 8.73 ir
89.42
20/10/13 Ozolnieku pusmaratons Lauma 21.10 1:54:32 160 05:25 11.05
18/10/13 vēja sapūsts pilnmēness mākoņos Lauma 17.02 1:46:07 137 06:14 9.62 ir
15/10/13 vakarnieks Lauma 10.51 1:09:48 131 06:38 9.03 ir
48.63
12/10/13 Siguldas pusmaratons Lauma 21.10 1:54:15 157 05:24 11.08
08/10/13 vakarnieks ar kompāniju Lauma 8.58 1:00:23 129 07:02 8.53 ir
29.68
05/10/13 Vaarojen maraton Lauma 86.00 15:26:56 135 10:46 5.57
04/10/13 līdz tiltiņam un atpakaļ, Koli Lauma 14.01 1:37:41 140 06:58 8.61 ir
01/10/13 pustumsā Lauma 7.20 52:09 126 07:14 8.28 ir
107.21
28/09/13 Dualtons 2.d Lauma 1.60 07:22 170 04:36 13.03 ir
28/09/13 Duatlons 1.d Lauma 3.20 15:31 168 04:50 12.37 ir
24/09/13 vakars Lauma 7.53 48:17 131 06:24 9.36 ir
12.33
22/09/13 Priekuļi trail Lauma 12.00 1:16:15 165 06:21 9.44
21/09/13 Jūrmalas pusmaratons Lauma 21.10 1:47:48 164 05:06 11.74
17/09/13 nedaudz pa lietu un trasi Lauma 11.40 1:15:14 135 06:35 9.09 ir
44.50
15/09/13 Valmieras pusmaratons TT Lauma 21.10 2:10:00 152 06:09 9.74
12/09/13 vakarnieks vēlīnais Lauma 12.16 1:21:01 132 06:39 9.01 ir
10/09/13 Juglas apļi 10.k Lauma 10.80 1:04:42 147 05:59 10.02 ir
10/09/13 līdz tiem apļiem Lauma 2.15 12:45 138 05:55 10.12 ir
46.21
05/09/13 rajons Lauma 7.49 54:58 132 07:20 8.18 ir
03/09/13 Līdz veikalam ar jātiek Lauma 8.00 51:25 147 06:25 9.34 ir
15.49
30/08/13 TDS beigas, UTMB sākums... Lauma 10.01 1:04:27 155 06:26 9.32 ir
28/08/13 kalni, kalni, kalni Lauma 9.02 1:38:07 141 10:52 5.52 ir
19.03
25/08/13 CM - travel running Lauma 21.85 6:14:54 17:09 3.50 ir
21.85
18/08/13 NRR skriešana Lauma 10.00 52:19 172 05:13 11.47 ir
14/08/13 pa rajonu Lauma 11.36 1:16:41 135 06:45 8.89 ir
21.36
04/08/13 pavadot apkārt ķīsītim Lauma 15.15 1:42:49 138 06:47 8.84 ir
01/08/13 NRR treniņš Lauma 4.88 1:09:18 111 14:12 4.23
20.03
25/07/13 Mežaparks Lauma 6.39 42:06 132 06:35 9.11 ir
25/07/13 NRR treniņš Lauma 4.94 1:10:31 116 14:16 4.20 ir
23/07/13 uz/no Mežaparka Lauma 16.36 1:39:04 148 06:03 9.91 ir
23/07/13 NRR treniņš Lauma 4.92 1:08:11 131 13:51 4.33 ir
32.61
21/07/13 meža takas Lauma 15.11 1:34:46 148 06:16 9.57 ir
19/07/13 starp negaisa mākoņiem, bez lietus Lauma 7.70 46:07 138 05:59 10.02 ir
15/07/13 mežā biju es Lauma 15.09 1:38:10 140 06:30 9.22 ir
37.90
13/07/13 Zemgales līdzenums jeb kam pieder šie lauki Lauma 11.58 1:10:07 143 06:03 9.91
10/07/13 pirms ogošanas Lauma 3.53 30:02 110 08:30 7.05 ir
15.11
02/07/13 īsais pirms teniņa Lauma 1.15 07:16 127 06:19 9.50 ir
1.15
26/06/13 pa rajonu vien Lauma 15.02 1:21:43 148 05:26 11.03 ir
15.02
22/06/13 Ventspils pusmaratons Lauma 21.10 1:56:40 160 05:31 10.85
20/06/13 vakars centrā Lauma 5.36 32:14 140 06:00 9.98 ir
18/06/13 par un ap Mežaparku Lauma 13.11 1:27:32 140 06:40 8.99 ir
39.57
16/06/13 ar līkumu uz veikalu Lauma 13.01 1:28:20 140 06:47 8.84 ir
13/06/13 Kāju izstaipīšana Mežaparkā Lauma 1.14 07:51 122 06:53 8.71 ir
11/06/13 Mežaparks Lauma 12.23 1:24:42 129 06:55 8.66 ir
26.38
07/06/13 Dzo 24H stafete Lauma 14.01 1:29:50 135 06:24 9.36
04/06/13 Juglas apļi 3.k. Lauma 3.60 18:37 161 05:10 11.60 ir
04/06/13 līdz apļiem Lauma 1.27 08:11 129 06:26 9.31 ir
03/06/13 Baložu bizons 4.k Lauma 3.00 15:58 165 05:19 11.27 ir
21.88
02/06/13 Siguldas duatlons - skriešanas daļas Lauma 6.00 29:13 160 04:52 12.32 ir
01/06/13 Zelta keda Lauma 10.00 52:53 166 05:17 11.35 ir
30/05/13 īsais pa mežaparku Lauma 1.14 07:50 122 06:52 8.73 ir
27/05/13 Baložu bizons 3.k Lauma 3.00 15:15 160 05:05 11.80 ir
20.14
20/05/13 elpas atvilkšana pilsētas centrā pēc Baložiem Lauma 6.41 38:16 134 05:58 10.05 ir
20/05/13 Baložu bizons 2.k Lauma 3.00 16:12 155 05:24 11.11 ir
9.41
19/05/13 Nordea Rīgas maratons Lauma 42.20 4:30:26 06:24 9.36
15/05/13 līdz veikalam un atpakaļ Lauma 9.14 59:21 138 06:29 9.24 ir
51.34
12/05/13 SEB 31. Tartu skriešanas maratons Lauma 23.40 2:05:33 153 05:21 11.18
10/05/13 hei sveiks dzegužkalns, torņkalns... Lauma 15.27 1:30:00 139 05:53 10.18 ir
08/05/13 vakars. pilsēta. mols. Lauma 11.35 1:06:42 138 05:52 10.21 ir
50.02
02/05/13 lēns skrējiens pa mežu Lauma 8.04 1:03:30 125 07:53 7.60 ir
01/05/13 Mežparks (SS7) Lauma 7.40 35:50 169 04:50 12.39 ir
15.44
28/04/13 Biķernieku pusmaratons Lauma 21.10 2:00:00 152 05:41 10.55
25/04/13 Juglas mežs krustu šķērsu Lauma 12.70 2:16:17 145 10:43 5.59 ir
23/04/13 uz/no Mežparks Lauma 20.38 2:03:48 155 06:04 9.88 ir
54.18
20/04/13 Pavasara kross Lauma 4.00 19:37 169 04:54 12.23 ir
18/04/13 mežs un trase Lauma 10.39 1:11:38 134 06:53 8.70 ir
14.39
10/04/13 tumsā centra pievārte Lauma 6.50 41:50 130 06:26 9.32 ir
09/04/13 tik balts un kluss tai mežā Lauma 10.64 1:09:07 142 06:29 9.24 ir
17.14
06/04/13 Rēzeknes pusmaratons Lauma 21.10 1:55:04 165 05:27 11.00
03/04/13 sagaidīju tumsu vakarā Lauma 8.04 51:48 141 06:26 9.31 ir
29.14
31/03/13 vakara pilsētas apskate Lauma 12.17 1:14:35 133 06:07 9.79 ir
29/03/13 saulainais dienas vidus Lauma 10.18 1:17:30 138 07:36 7.88 ir
26/03/13 sīkas rikšas Lauma 5.14 32:46 136 06:22 9.41 ir
27.49
24/03/13 Bratislavas pusmaratons Lauma 21.10 1:46:55 166 05:04 11.84
19/03/13 centra pievārte Lauma 6.64 38:17 144 05:45 10.41 ir
27.74
16/03/13 ar līkumu uz veikaliem Lauma 11.34 1:20:08 134 07:03 8.49 ir
14/03/13 ar suņuku pastaigā Lauma 13.01 1:28:54 141 06:49 8.78 ir
24.35
09/03/13 uz/no/pa Mežaparks Lauma 25.06 2:50:19 148 06:47 8.83 ir
07/03/13 slidinoties pa rajonu Lauma 7.55 51:38 132 06:50 8.77 ir
04/03/13 vakarā Lauma 7.23 49:49 134 06:53 8.71 ir
39.84
28/02/13 pa rajonu Lauma 5.01 38:42 130 07:43 7.77 ir
5.01
10/02/13 iekļaut ikdienā skriešanu Lauma 12.42 1:27:07 135 07:00 8.55 ir
12.42
31/01/13 nedaudz slapjais Lauma 4.30 39:09 120 09:06 6.59 ir
4.30
19/01/13 Ziemas triatlons, skrējiens Lauma 4.80 27:03 05:38 10.65 ir
4.80
31/12/12 Dream of the final night Igaunijā Lauma 44.30 6:52:01 09:18 6.45 ir
44.30
07/12/12 Pražska stovka daļa... Lauma 95.65 23:33:05 14:46 4.06 ir
95.65
11/11/12 Polijas neatkarības dienas skrējiens Lauma 10.00 48:55 151 04:53 12.27 ir
06/11/12 klusais un vietuļais vakarnieks Lauma 10.04 1:07:33 140 06:43 8.92 ir
20.04
01/11/12 Atslābumam nē! Lauma 10.12 1:04:11 148 06:20 9.46 ir
30/10/12 tumsnīgais ap rajonu Lauma 10.09 1:13:29 131 07:16 8.24 ir
20.21
27/10/12 Siguldas kalnu maratons.... Lauma 20.00 3:26:12 148 10:18 5.82 ir
25/10/12 pirms lielā gāziena Lauma 6.01 37:01 135 06:09 9.74 ir
26.01
21/10/12 Ozolnieku pusmaratons Lauma 21.10 2:02:30 153 05:48 10.33 ir
20/10/12 Duatlons 2.d Lauma 3.00 17:19 169 05:46 10.39
20/10/12 Duatlons 1.d Lauma 5.00 27:18 171 05:27 10.99 ir
16/10/12 apaļš ābols bumbierim Lauma 12.62 1:27:04 135 06:53 8.70 ir
41.72
07/10/12 Hellasloppet 2012 Lauma 10.00 51:34 161 05:09 11.64 ir
06/10/12 Duatlons 2.d Lauma 1.60 07:24 04:37 12.97 ir
06/10/12 Duatlons 1.d Lauma 3.20 15:09 04:44 12.67 ir
04/10/12 kļavu lapas, laternas, serpentīns Lauma 6.81 53:31 139 07:51 7.64 ir
02/10/12 mežs un ielas Lauma 11.74 1:26:16 128 07:20 8.17 ir
33.35
30/09/12 Rēzeknes pusmaratons Lauma 21.10 1:55:36 158 05:28 10.95 ir
25/09/12 ciku caku-caku patumšais Lauma 20.08 2:20:51 133 07:00 8.55 ir
41.18
23/09/12 Priekuļi mini-trail Lauma 12.00 1:15:27 159 06:17 9.54 ir
23/09/12 pa zālīti Lauma 1.00 08:34 126 08:34 7.00 ir
22/09/12 Jūrmalas pusmaratons Lauma 21.10 1:47:05 165 05:04 11.82 ir
34.10
16/09/12 Valmieras pusmaratons TT Lauma 21.10 2:04:57 150 05:55 10.13 ir
13/09/12 mazs lietutiņš vakarā Lauma 20.42 2:14:07 132 06:34 9.14 ir
11/09/12 Juglas apļi 10.k Lauma 3.60 16:27 163 04:34 13.13
11/09/12 pusīsais aplis mežā Lauma 2.90 19:57 141 06:52 8.72 ir
48.02
09/09/12 B-trase, mežs Lauma 9.41 1:03:58 134 06:47 8.83 ir
06/09/12 Mežparks Lauma 4.80 35:43 137 07:26 8.06 ir
05/09/12 tāds lēnais 3dienā Lauma 15.43 1:51:19 132 07:12 8.32 ir
03/09/12 Baložu bizons 8.k Lauma 3.00 16:39 170 05:33 10.81 ir
32.64
30/08/12 Tā daļa UTMB TDS Lauma 60.30 17:21:56 17:16 3.47 ir
28/08/12 uz/no/pa Juglas mežu un apkārtni Lauma 10.75 1:17:00 129 07:09 8.38 ir
28/08/12 Juglas apļi 9.k Lauma 3.60 15:39 162 04:20 13.80 ir
27/08/12 Baložu bizons 7.k Lauma 3.00 14:51 156 04:57 12.12 ir
27/08/12 viens pēc aplis Lauma 1.08 08:32 135 07:54 7.59 ir
78.73
26/08/12 NikeRigaRun skrējiens Lauma 10.00 53:12 161 05:19 11.28 ir
22/08/12 Vakara patumšais, gandrīz bez lietus Lauma 18.03 1:58:18 129 06:33 9.14 ir
28.03
15/08/12 kaut kāds mežs un apkārtējās ielas Lauma 18.32 1:58:51 133 06:29 9.25 ir
13/08/12 Baložu bizons 5.k Lauma 3.00 15:04 159 05:01 11.95 ir
13/08/12 ie/at vairāk jau at-sildīšanās Lauma 1.06 08:17 137 07:48 7.68 ir
22.38
11/08/12 līkloči pa trasi un rajonu Lauma 16.03 1:44:39 132 06:31 9.19 ir
08/08/12 Nu nāk lietus, nu nāk lietus, Nu nāk mani slapināt Lauma 13.10 1:30:22 128 06:53 8.70 ir
06/08/12 Šmerlis, pauguri un vēl trīs skrējēji pretī Lauma 8.31 54:52 143 06:36 9.09 ir
37.44
04/08/12 Kuldīgas pusmaratons Lauma 21.10 1:55:35 161 05:28 10.95 ir
01/08/12 mēness starus stīgo Lauma 11.10 1:10:34 129 06:21 9.44 ir
31/07/12 atceļā ar līkumu uz mājām Lauma 7.01 44:10 138 06:18 9.52 ir
31/07/12 Juglas apļi 7.k Lauma 3.60 16:31 157 04:35 13.08 ir
42.81
28/07/12 Koptreniņš Rīga - Valmiera, pavadošais velo Lauma 107.00 10:31:03 05:53 10.17
107.00
21/07/12 Divi tilti Siguldā Lauma 12.80 1:08:35 161 05:21 11.20 ir
18/07/12 Mežaparks Lauma 16.14 1:52:16 132 06:57 8.63 ir
28.94
15/07/12 Liepājas pusmaratons TT Lauma 21.10 2:01:57 158 05:46 10.38 ir
13/07/12 vakarā Lauma 6.03 33:47 138 05:36 10.71 ir
09/07/12 mežs, trase Lauma 6.05 38:09 133 06:18 9.52
33.18
08/07/12 mežā vakarā ir labi Lauma 4.16 30:30 123 07:19 8.18 ir
07/07/12 Bruņurupucis 2012 Lauma 6.50 30:54 160 04:45 12.62
06/07/12 Laiciņš ārā jauks Lauma 5.31 34:37 142 06:31 9.20 ir
05/07/12 īsais Lauma 1.52 09:31 06:15 9.58 ir
04/07/12 Aizej lietiņ rūkdams, krākdams, atnāc saulīt vizēdam Lauma 15.44 1:41:52 140 06:35 9.09 ir
03/07/12 Juglas apļi 4.k Lauma 3.60 19:19 155 05:21 11.18 ir
02/07/12 pa un ap mežu Lauma 5.23 34:55 128 06:40 8.99 ir
41.76
27/06/12 Siguldas taku ietestēšana Lauma 18.08 2:10:49 134 07:14 8.29 ir
18.08
23/06/12 Jānis, Jānītis Lauma 13.27 1:08:20 163 05:08 11.65 ir
20/06/12 trešdiena Ju-Be-Up-La-Be-Ju Lauma 20.02 2:13:01 139 06:38 9.03 ir
33.29
16/06/12 Ventspils pusmaratons Lauma 21.10 1:48:10 163 05:07 11.70 ir
13/06/12 trešdiena ar sauli Lauma 16.44 1:47:00 134 06:30 9.22 ir
37.54
06/06/12 trešdiena trešdiena Lauma 15.05 1:42:43 06:49 8.79 ir
05/06/12 un vēlreiz pa mežu Lauma 3.60 26:50 07:27 8.05 ir
05/06/12 Juglas apļi 3.k Lauma 3.60 17:03 04:44 12.67 ir
22.25
30/05/12 Trešdiena. Biķernieki. Koptreniņš. Lauma 17.89 1:54:58 145 06:25 9.34 ir
28/05/12 Baložu bizons 4.k Lauma 3.00 15:12 167 05:04 11.84 ir
20.89
25/05/12 trešdiena piektdienā Lauma 12.10 1:20:28 128 06:39 9.02 ir
22/05/12 mežā maijpuķītes zied Lauma 3.60 25:04 141 06:57 8.62 ir
22/05/12 Juglas apļi 2.k Lauma 3.60 16:54 159 04:41 12.78 ir
21/05/12 Baložu bizons 3.k Lauma 3.00 15:29 166 05:09 11.63 ir
21/05/12 viens lēnais Lauma 1.10 09:13 142 08:22 7.16 ir
23.40
20/05/12 Nordea Rīgas maratons TT Lauma 21.10 2:13:47 146 06:20 9.46 ir
21.10
10/05/12 "iesildīšanās" Lauma 4.25 ir
09/05/12 trešdiena b-trasē Lauma 11.37 1:20:12 125 07:03 8.51 ir
07/05/12 Atsildīšanās jeb taku iegaumēšana ar Ingu Lauma 2.21 18:38 141 08:25 7.12 ir
07/05/12 Baložu bizons 1.k Lauma 3.00 15:13 161 05:04 11.83 ir
20.83
03/05/12 uz autobusu Lauma 1.42 07:44 150 05:26 11.02
02/05/12 trešdienas paskrējiens Lauma 10.68 1:19:32 07:26 8.06 ir
01/05/12 uz autobusu Lauma 1.50 10:00 06:40 9.00
13.60
29/04/12 Rīgas pusmaratons TT Lauma 21.10 2:14:44 148 06:23 9.40 ir
26/04/12 NRR koptreniņš Lauma 11.15 1:15:33 135 06:46 8.86
32.25
15/04/12 Mežparks, NRM un saule Lauma 25.20 2:37:00 143 06:13 9.63 ir
11/04/12 Trešdiena. Biķernieku trase. Mežs Lauma 12.09 1:19:50 150 06:36 9.09 ir
37.29
06/04/12 Rīgas pusmaratons (LSC) Lauma 21.10 1:58:06 165 05:35 10.72 ir
04/04/12 trešdienas ziemas skrējiens Lauma 8.11 54:28 138 06:42 8.93 ir
29.21
01/04/12 Berlīnes pusmaratons Lauma 21.10 1:52:33 163 05:20 11.25
28/03/12 Trešdienā Lauma 10.11 1:07:53 139 06:42 8.94 ir
26/03/12 rajons pa gaismu Lauma 10.15 56:18 148 05:32 10.82 ir
41.36
22/03/12 Tā kā Biķernieku trase, tā kā rajons nedaudz Lauma 13.36 1:16:59 147 05:45 10.41 ir
21/03/12 aij bieza migla, migla Lauma 8.25 58:57 07:08 8.40 ir
21.61
18/03/12 Ju-Te-Pu-Pļ-Dr-Me-Ju Lauma 16.02 1:36:36 06:01 9.95 ir
15/03/12 vakarnieks pa tumsu Lauma 10.00 54:41 159 05:28 10.97 ir
14/03/12 rajona vārnas dzenājot Lauma 8.05 58:34 140 07:16 8.25 ir
34.07
08/03/12 mēs tikāmies martā, pilnmēnesī... Lauma 8.14 59:18 125 07:17 8.24 ir
05/03/12 pavasaris rajonā sācies Lauma 10.10 1:00:07 143 05:57 10.08 ir
18.24
01/03/12 marts. lietus. rajons. trešdienieks it kā Lauma 7.14 53:12 129 07:27 8.05 ir
7.14
23/02/12 viens mazs līkumiņš gandrīz trešdienā Lauma 7.38 58:36 133 07:56 7.56 ir
7.38
18/01/12 trešdienas gliemežlidojums Lauma 7.13 56:08 137 07:52 7.62 ir
7.13
12/01/12 kājas izvingrinot Lauma 10.11 1:04:57 06:25 9.34 ir
11/01/12 izvilka mani skriet kārtējā trešdienā Lauma 7.07 55:04 133 07:47 7.70 ir
17.18
01/01/12 koptreniņš Piņķu - Jūrmalas apkārtnē Lauma 21.14 2:14:29 145 06:21 9.43 ir
31/12/11 mežs, trase, ielas Lauma 17.11 1:50:25 153 06:27 9.30 ir
28/12/11 Ju-Be-Ju ar Ingu_K Lauma 10.03 1:12:58 139 07:16 8.25 ir
26/12/11 mežs, trase, mežs Lauma 21.70 2:30:41 06:56 8.64 ir
69.98
21/12/11 Vakara naksnīgais Lauma 17.02 2:05:45 145 07:23 8.12 ir
20/12/11 he pirmais tūkstotis km ap rajonu skrienot Lauma 6.02 30:58 156 05:08 11.66 ir
23.04
14/12/11 Apkārt rajonam kompānijā Lauma 10.43 1:12:33 141 06:57 8.63 ir
10.43
11/12/11 Ozolnieku ziemas skrējiens Lauma 15.00 1:21:12 160 05:24 11.08 ir
07/12/11 Ju-Te-Pu-Pļ-Dr-Me-Ju Lauma 16.03 1:48:41 135 06:46 8.85 ir
06/12/11 sniegputenī (Ju-Te-Pu-Pļ-Dr-Me-Ju) Lauma 16.02 1:44:36 06:31 9.19 ir
47.05
30/11/11 pa rajonu Lauma 10.07 1:13:49 07:19 8.19 ir
29/11/11 Apkārt Šmerlim Lauma 6.04 36:37 155 06:03 9.90 ir
16.11
19/11/11 Rudens skrējiens Venspilī Lauma 10.00 52:12 167 05:13 11.49 ir
16/11/11 gliemeža sapnis Lauma 10.06 1:19:48 134 07:55 7.56 ir
20.06
13/11/11 Bulduri - Dubulti - Bulduri Lauma 12.12 1:21:51 156 06:45 8.88 ir
12.12
29/10/11 Nike Siguldas kalnu maratons 2011 Lauma 55.00 9:17:21 163 10:08 5.92 ir
55.00
23/10/11 Ozolnieku pusmaratons = lēnais treniņš Lauma 21.10 2:22:22 06:44 8.89 ir
23/10/11 Ozolnieku satelītskrējiens Lauma 5.00 23:43 163 04:44 12.65 ir
20/10/11 Juglas - Biķernieku - Šmerļa - Brīvības kopā ar Lieni Lauma 10.49 1:10:03 132 06:40 8.99 ir
18/10/11 Brīvības - Lielvārdes - Brīvības kompānijā Lauma 15.12 1:43:56 135 06:52 8.73 ir
51.71
15/10/11 Siguldas pusmaratons Lauma 21.10 1:59:15 05:39 10.61 ir
21.10
02/10/11 Koptreniņš Siguldā - rudeni baudot Lauma 18.90 2:43:00 132 08:37 6.96 ir
29/09/11 Jugla - Biķernieku trase - Jugla Lauma 15.70 1:21:19 152 05:10 11.58 ir
26/09/11 Biķernieku trasē ar Dainu un Māri Lauma 14.02 1:20:07 155 05:42 10.50 ir
48.62
18/09/11 Valmieras pusmaratons TT Lauma 21.10 2:14:48 144 06:23 9.39 ir
13/09/11 Biķernieku trase un mežs Lauma 14.46 1:31:45 147 06:20 9.46 ir
35.56
08/09/11 Biķernieku trase un taciņas ap to Lauma 14.00 1:40:43 131 07:11 8.34 ir
06/09/11 Juglas apļi 10.k Lauma 3.60 16:56 162 04:42 12.76 ir
05/09/11 Baložu bizons 8.k Lauma 3.00 14:45 04:55 12.20 ir
05/09/11 kopā ar Ingu aplīti Lauma 1.00 08:59 08:59 6.68 ir
21.60
26/08/11 UTMB CCC Lauma 98.00 24:59:02 15:17 3.92 ir
23/08/11 vakarā vēlā Lauma 4.25 26:15 152 06:10 9.71 ir
102.25
21/08/11 Koptreniņš Ozolniekos Lauma 18.09 1:56:24 149 06:26 9.32 ir
18/08/11 NRR koptreniņš Mežparkā Lauma 5.67 29:34 166 05:12 11.51 ir
15/08/11 Baložu bizons 5.k Lauma 3.00 14:56 155 04:58 12.05 ir
15/08/11 viens mazais atsildoties Lauma 1.00 06:31 136 06:31 9.21 ir
27.76
14/08/11 Ventspils triatlons Lauma 4.00 17:50 04:27 13.46 ir
09/08/11 līdz lienei, tad kopā pa mežu un uz mājām pēc apļiem Lauma 9.86 58:23 152 05:55 10.13 ir
09/08/11 Juglas apļi 8.k Lauma 3.60 17:03 166 04:44 12.67 ir
17.46
04/08/11 apkārt Šmerlim - īsais Lauma 5.55 26:37 157 04:47 12.51 ir
04/08/11 atsildīšanās Lauma 0.52 05:17 141 10:09 5.91 ir
02/08/11 vakara pasaciņas vietā - mežs Lauma 7.20 46:09 159 06:24 9.36 ir
13.27
28/07/11 šodien ārā saulains laiks - lietus un nedaudz negaiss Lauma 12.12 1:25:57 134 07:05 8.46 ir
26/07/11 Juglas apļi 7.k Lauma 3.60 16:33 164 04:35 13.05 ir
15.72
24/07/11 Triatlons Zemgales kauss - skriešana + MIx zona Lauma 5.10 27:40 05:25 11.06 ir
19/07/11 pa mežu krustu šķērsu Lauma 12.26 1:20:06 138 06:32 9.18 ir
17.36
17/07/11 Liepājas pusmaratons Lauma 21.10 2:01:05 163 05:44 10.45 ir
15/07/11 līdz Lienei un atpakaļ Lauma 4.64 24:04 142 05:11 11.57 ir
12/07/11 Juglas apļi 6k Lauma 3.60 16:24 163 04:33 13.17 ir
29.34
10/07/11 Apkārt Vaidavas ezeram Lauma 11.70 1:02:53 163 05:22 11.16 ir
09/07/11 Vaidavas trialtons - skriešana Lauma 6.00 31:15 05:12 11.52 ir
05/07/11 ar mani atkal runā kaijas Lauma 10.05 58:00 143 05:46 10.40 ir
27.75
28/06/11 Juglas apļi 5.kārta Lauma 18.25 1:47:28 175 05:53 10.19 ir
18.25
23/06/11 Skrējiens  - Jānis, jānītis Lauma 12.98 1:11:28 167 05:30 10.90 ir
21/06/11 nedaudz un lēnām Lauma 7.42 50:56 136 06:51 8.74 ir
20.40
19/06/11 Ventspils piedzīvojuma parka pusmaratons TT Lauma 21.10 2:00:19 164 05:42 10.52 ir
21.10
11/06/11 Divi tilti Siguldā Lauma 12.80 1:19:40 167 06:13 9.64
09/06/11 kvartatlons. kopā ar dainu, gar šosejas malu līdz langstiņu ezeram Lauma 7.85 45:19 161 05:46 10.39 ir
07/06/11 vērojot mēnesi pa juglas/mežciema apkārtni Lauma 7.06 41:19 150 05:51 10.25
27.71
23/05/11 Baložu bizons 4.k Lauma 3.00 14:06 160 04:42 12.77 ir
23/05/11 viens aplītis kopā ar Dainu Lauma 1.00 06:46 130 06:46 8.87 ir
4.00
22/05/11 NRM jeb noskrien mani un pusmaratonā finišēši ātrāk par mani Lauma 21.10 2:15:00 06:23 9.38 ir
20/05/11 vakarā, kad ceriņi smaržo Lauma 6.08 34:59 139 05:45 10.43 ir
16/05/11 Baložu bizons 3.k Lauma 3.00 14:17 159 04:45 12.60 ir
16/05/11 viens aplītis atsildoties kompānijā ar Ingu Lauma 1.00 07:59 137 07:59 7.52 ir
31.18
09/05/11 Baložu bizons 2.k Lauma 3.00 14:56 159 04:58 12.05 ir
3.00
08/05/11 Rīgas pusmaratons - galvenais ir noskriet Lauma 21.10 2:02:23 160 05:48 10.34 ir
07/05/11 Biķernieku trasē ar Līvu, Māri un Dainu Lauma 7.08 51:34 143 07:17 8.24
07/05/11 nedaudz caur mežu līdz trasei Lauma 1.24 07:00 137 05:38 10.63 ir
05/05/11 mežā, kad pilns ar skrējējiem Lauma 5.12 29:45 155 05:48 10.33 ir
03/05/11 un vēl viens aplis lēnā garā ar brewe Lauma 3.54 22:19 146 06:18 9.52 ir
03/05/11 Juglas apļi 1.k ar jaunu personisko Lauma 3.60 16:47 160 04:39 12.87
41.68
28/04/11 taisnais gabals ar Katrīnu Jugla - Depo aplis un atpakaļ Lauma 12.08 1:18:25 142 06:29 9.24 ir
28/04/11 iesildoties un atsildoties Lauma 1.54 09:32 137 06:11 9.69 ir
26/04/11 vakarpusē ar lieni, klausoties pīkstoņu līdz depo un atpakaļ Lauma 10.86 1:17:19 134 07:07 8.43 ir
25/04/11 neliels līkumiņš apakār Šmerlim mājup no trases Lauma 4.05 23:40 05:50 10.27 ir
25/04/11 viens aplītis pa biķernieku trasi Lauma 5.59 31:03 05:33 10.80 ir
25/04/11 ieslidīšanās un atsildīšanās līdz trasei Lauma 2.30 12:44 160 05:32 10.84 ir
36.42
23/04/11 Siguldas duatlons 2d Lauma 2.65 12:18 167 04:38 12.93 ir
23/04/11 Siguldas dualtons 1d Lauma 2.65 12:25 163 04:41 12.81 ir
18/04/11 Biķernieku trase, koptreniņš Lauma 11.85 1:05:37 05:32 10.84 ir
18/04/11 mājup Lauma 1.68 10:00 05:57 10.08 ir
18/04/11 cauri mežam līdz biķrnieku trasei Lauma 1.82 10:30 147 05:46 10.40 ir
20.65
13/04/11 tāda kā atsildīšanās Lauma 0.53 04:51 145 09:09 6.56 ir
13/04/11 mežs, Biķernieku trase, mežs Lauma 8.58 50:20 156 05:51 10.23 ir
11/04/11 uz mājām Lauma 2.44 15:38 155 06:24 9.36 ir
11/04/11 Biķernieku trasē, koptreniņš Lauma 5.68 35:37 171 06:16 9.57 ir
11/04/11 cauri mežam līdz biķernieku trasei Lauma 1.80 09:02 160 05:01 11.96 ir
19.03
02/04/11 Prāgas pusmaratons = pastaiga Lauma 21.10 2:13:59 162 06:20 9.45
31/03/11 kāju izlocīšana pēc 24h+ sēdēšanas Lauma 4.56 30:14 136 06:37 9.05 ir
29/03/11 lai līst jeb atsildīšanās Lauma 1.11 10:12 136 09:11 6.53 ir
29/03/11 ej projām ziema, es gaidu pavasari Lauma 5.10 30:31 161 05:59 10.03 ir
29/03/11 izlsēdziet kāds lūdzu to ziemu Lauma 5.12 35:39 132 06:57 8.62 ir
36.99
26/03/11 Saulrietā. Kā izrādās es 10km arī varu lēnām tipināt Lauma 10.14 1:19:31 133 07:50 7.65
24/03/11 un vēl pavisam nedaudz Lauma 1.10 08:47 141 07:59 7.51
24/03/11 pūt pūt vēja māte, met jel mieru vakarāi Lauma 10.08 55:51 161 05:32 10.83
22/03/11 Purvciema/Pļavnieku līkumi Lauma 10.08 1:05:49 148 06:31 9.19
31.40
20/03/11 atsildīšanās nenāk par ļaunu Lauma 1.30 09:36 151 07:23 8.13
20/03/11 saulaini 10km, skrējiens pa asfaltu, dubļiem, peļķēm un sniegu Lauma 10.08 58:14 162 05:46 10.39
18/03/11 tradicionālais. lēnu garu. pīkstieni ik pa 5m Lauma 5.62 44:57 134 07:59 7.50
15/03/11 turpinājums seko Lauma 4.04 25:15 148 06:15 9.60
15/03/11 iesākumā bija lēnām Lauma 2.05 15:17 132 07:27 8.05
23.09
13/03/11 pēc foto un atpakaļ KP pie ūdens Lauma 0.94 06:09 153 06:32 9.17
13/03/11 Vestiena 2011 saule, sniegs, kalni Lauma 8.05 51:12 166 06:21 9.43
8.99
22/01/11 CTS11 Anglesey, kalnu skrējiens - pusmaratons Lauma 24.97 3:05:58 162 07:26 8.06
19/01/11 vakara paskrējiens ar veikalu apmeklējumu Lauma 7.07 43:22 143 06:08 9.78
17/01/11 gājējiem par izbrīnu, ka pa ledu arī var skriet Lauma 7.17 49:09 138 06:51 8.75
39.21
15/01/11 saule sniegā atstaro Lauma 1.74 11:27 181 06:34 9.12
15/01/11 pa saules pielietu trasi Lauma 1.74 10:29 154 06:01 9.96
14/01/11 ar klunkšķošu mugursomu Lauma 6.00 35:00 150 05:50 10.29
9.48
09/01/11 pa sniegotu trasi ar nogurama devu Lauma 1.74 11:11 165 06:25 9.34
09/01/11 pa miglā tītu sniegotu trasi Lauma 1.74 10:01 160 05:45 10.42
3.48
02/01/11 pa nu jau svaigāku trasi Lauma 1.74 11:21 167 06:31 9.20
02/01/11 pa svaigu trasi Lauma 1.74 10:29 167 06:01 9.96
01/01/11 runā, kā iesāks jauno gadu tā arī viņu pavadīs Lauma 5.09 33:41 158 06:37 9.07
8.57
25/12/10 pa neizbrienamu sniega putru Lauma 1.74 14:07 08:06 7.40
25/12/10 pa nebrienamu sniega putru Lauma 1.74 12:09 06:58 8.59
3.48
18/12/10 otrā daļa: pēc slēpošanas Lauma 1.74 10:18 164 05:55 10.14
18/12/10 pirmā daļa: pirms slēpošanas Lauma 1.74 09:05 162 05:13 11.49
15/12/10 veloceliņš, sniegotas taciņas, kupenas un suns Lauma 10.00 1:09:38 155 06:57 8.62
13.48
12/12/10 Sniegotais Ozolnieku ziemas skrējiens Lauma 5.00 27:00 172 05:24 11.11
07/12/10 pārmaiņus pa tīru un piesnigušu trotuāru Lauma 6.05 35:58 150 05:56 10.09
11.05
05/12/10 drīz vajadzēs slēpes Lauma 6.07 41:13 152 06:47 8.84
04/12/10 starp ragaviņotājiem un slēpotājiem mežā Lauma 6.05 34:03 159 05:37 10.66
12.12
28/11/10 sniegbaltā mežā trīs suņi, Lienīte un es Lauma 6.06 35:43 154 05:53 10.18
25/11/10 man no sniega labi gan un ar suņuku Lauma 5.95 35:32 151 05:58 10.05
12.01
15/11/10 lēnām līdz mājām Lauma 2.64 15:28 171 05:51 10.24
15/11/10 ik pa trīs laternu stabu skrējiens Lauma 1.03 05:24 174 05:14 11.44
15/11/10 gandrīz pusceļš Lauma 2.40 12:12 149 05:05 11.80
6.07
11/11/10 kad gaismu izslēdz Lauma 2.94 15:20 147 05:12 11.50
09/11/10 ezītis miglā Lauma 5.57 31:26 145 05:38 10.63
8.51
06/11/10 jūrmalas smiltiņas Lauma 10.05 1:00:42 117 06:02 9.93
10.05
30/10/10 Siguldas kalnu maratons Lauma 55.00 8:11:13 108 08:55 6.72
26/10/10 ar Lieni pa tuvējo rajonu Lauma 4.17 23:56 120 05:44 10.45
26/10/10 meža dublīši tumsā Lauma 1.98 11:23 127 05:44 10.44
61.15
24/10/10 mežā nr.2  Lauma 2.23 11:50 139 05:18 11.31
24/10/10 mežā Lauma 2.02 11:24 137 05:38 10.63
23/10/10 pa ozolnieku mežiem Lauma 2.97 20:51 150 07:01 8.55
23/10/10 Ozolnieku 5km lietū un dubļos Lauma 5.00 23:08 166 04:37 12.97
23/10/10 līdz pusītes startam tos pavadot Lauma 1.00
22/10/10 rudenīgas lapas skrējiens mežā Lauma 3.38 18:21 117 05:25 11.05
20/10/10 lēnu garu vakarā Lauma 4.35 24:20 136 05:35 10.73
19/10/10 visapkārt tumša, tumša nakts Lauma 10.00 56:09 147 05:36 10.69
30.95
16/10/10 Duatlons 2.d viscaur izmirkusi, lietus/sniegs, pārsalušas rokas Lauma 3.20 16:27 164 05:08 11.67
16/10/10 Duatlons 1.d viss tā kā pie cilvēkiem Lauma 3.20 15:24 164 04:48 12.47
15/10/10 līdz veikalam Lauma 0.80 04:04 140 05:05 11.80
15/10/10 nedaudz puskrēslā pa mežu Lauma 2.18 10:59 147 05:02 11.91
12/10/10 visi vēji mani pūta Lauma 5.05 26:49 148 05:18 11.30
14.43
10/10/10 Briseles pusmaratons Lauma 21.10 1:52:39 152 05:20 11.24
08/10/10 sārtas lapas, kastaņi un ozolzīles Lauma 5.06 25:55 150 05:07 11.71
06/10/10 līdz mājam ar jātiek Lauma 1.01 05:28 143 05:24 11.09
06/10/10 vakarpusē ar Lienīti pļāpājot Lauma 7.26 42:50 141 05:53 10.17
05/10/10 ...bet supermens vēl nelido... Lauma 4.29 23:44 145 05:31 10.85
38.72
01/10/10 mežā kalniņus atradu Lauma 3.08 19:09 149 06:13 9.65
30/09/10 mežs, trase, mežs Lauma 7.60 41:19 150 05:26 11.04
29/09/10 pa mazajām ieliņām Lauma 5.03 25:43 159 05:06 11.74
28/09/10 rudens drēgnais Lauma 3.04 15:48 153 05:11 11.54
18.75
19/09/10 Valmieras maratons  Lauma 5.80 28:49 166 04:58 12.08
16/09/10 meža taciņas un pāris mazi kalniņi Lauma 7.33 44:00 162 06:00 10.00
16/09/10 iesildīšanās un atsildīšanās sanāca Lauma 1.09 05:36 151 05:08 11.68
14/09/10 mežā sēnes aug Lauma 7.27 41:55 152 05:45 10.41
13/09/10 pulsa vērotāju pulciņa skrējiens Lauma 5.08 31:49 135 06:15 9.58
26.57
07/09/10 juglas apļi 10.k ar personisko Lauma 3.60 16:48 170 04:40 12.86
3.60
02/09/10 vēl pirms lietus mazs aplītis mežā Lauma 2.29 12:32 140 05:28 10.96
31/08/10 mežparks un nedaudz sāpošs celis Lauma 5.06 23:40 163 04:40 12.83
30/08/10 biķernieku trasē velobraucēji iedvesmo skriet Lauma 10.15 52:47 160 05:12 11.54
17.50
27/08/10 pa peļķēm vien, pa peļķēm vien Lauma 5.56 28:44 156 05:10 11.61
26/08/10 Mežparkā nike aplis Lauma 5.06 25:50 161 05:06 11.75
24/08/10 juglas apļi 9.k. Lauma 3.60 17:42 169 04:55 12.20
14.22
15/08/10 ventspils trialtona skrējiens Lauma 2.00 09:33 04:46 12.57
10/08/10 Juglas apļi 8.k jeb vajadzēja vēl atpūsties Lauma 3.60 17:49 159 04:56 12.12
5.60
03/08/10 mežā un trasē. karsti. Lauma 5.96 36:20 144 06:05 9.84
02/08/10 ar Lienīti un diviem suņiem Lauma 7.12 45:01 142 06:19 9.49
13.08
27/07/10 juglas apļi 7.k viegli skrējās Lauma 3.60 17:28 04:51 12.37
26/07/10 mežs, mežs, mežs Lauma 5.09 30:28 139 05:59 10.02
8.69
22/07/10 naksnīgs paskrējiens kopā ar Lienīti Lauma 5.42 32:24 150 05:58 10.04
20/07/10 pa mežu ar čīkstošu kedu Lauma 4.23 25:47 139 06:05 9.84
9.65
18/07/10 Vaidavas ezera triatlona skrējiens Lauma 6.00 34:52 05:48 10.33
17/07/10 Vaidavas ezera skrējiens Lauma 11.00 1:01:42 165 05:36 10.70
13/07/10 gar jūru ar peldi Lauma 3.63 18:53 05:12 11.53
20.63
07/07/10 virpulī starp autobusiem Lauma 3.00
06/07/10 ar vilciņu rīgā braucu Lauma 4.00 26:34 141 06:38 9.03
7.00
29/06/10 juglas apļi 5.k bez odiem šoreiz Lauma 3.60 18:10 170 05:02 11.89
3.60
15/06/10 juglas apļi 4.k kopā ar tempa turētāju Lauma 3.60 17:28 166 04:51 12.37
3.60
12/06/10 mežparks LSC 3.k un pārdomas Lauma 5.00 26:09 168 05:13 11.47
10/06/10 suņuku mežā paskraidināju Lauma 5.54 30:52 164 05:34 10.77
10.54
05/06/10 zelta kedas meklējumos mežparkā Lauma 10.00 52:58 170 05:17 11.33
01/06/10 juglas apļi 3.k un ēdelīgu odu bars Lauma 3.60 17:26 172 04:50 12.39
13.60
18/05/10 juglas apļi 2.k un daudz odi Lauma 3.60 17:11 164 04:46 12.57
17/05/10 apkārt mežam Lauma 5.00 29:54 150 05:58 10.03
8.60
13/05/10 mežs. trase. +24C  Lauma 8.13 48:07 151 05:55 10.14
8.13
07/05/10 mežs, mežs Lauma 2.68 14:37 159 05:27 11.00
07/05/10 ar meitenēm pa biķernieku trasi Lauma 4.83 31:47 153 06:34 9.12
07/05/10 caur mežu līdz trases otram galam Lauma 2.80 15:11 154 05:25 11.06
05/05/10 saulrietā pa rajonu Lauma 7.11 37:51 159 05:19 11.27
17.42
01/05/10 Vīlandes ezers sauc Lauma 12.00 1:09:01 161 05:45 10.43
29/04/10 mazs aplītis vakarpusē Lauma 5.56 30:08 157 05:25 11.07
27/04/10 nedaudz mežs un kalniņi Lauma 6.47 38:19 159 05:55 10.13
24.03
25/04/10 nedaudz LSC pavasra krosa kalniņi Lauma 6.00 35:50 165 05:58 10.05
24/04/10 pavasaris cēsīs Lauma 13.62 1:17:46 165 05:42 10.51
23/04/10 meža pēc lietus Lauma 4.40 24:19 154 05:31 10.86
21/04/10 krosa trase un mežs Lauma 6.11 35:02 151 05:44 10.46
20/04/10 pa Biķernieku trasi cilpojot Lauma 8.10 45:28 157 05:36 10.69
38.23
13/04/10 mežs. saule. putniņi Lauma 5.50 33:29 153 06:05 9.86
5.50
03/04/10 Ozolnieku peļķes Lauma 5.00 25:53 170 05:10 11.59
30/03/10 vakars. saulriets Lauma 5.08 27:35 163 05:25 11.05
10.08
27/03/10 saule. mežparks  Lauma 5.00 26:41 168 05:20 11.24
23/03/10 pa peļķēm lēkājot Lauma 5.56 31:21 158 05:38 10.64
10.56
14/03/10 lēnītēm ar sunīti mežā Lauma 1.74 12:15 150 07:02 8.52
11/03/10 kopā ar Lienīti un suni Lauma 5.28 44:15 148 08:22 7.16
09/03/10 gaidu pavasari Lauma 4.28 28:49 160 06:43 8.92
11.30
06/12/09 pabiju ozolniekos Lauma 5.00 24:36 170 04:55 12.20
04/12/09 dzeltenas ausis, mirgojošs suns, vakarā vēlā Lauma 5.00 34:25 153 06:53 8.72
02/12/09 vēlu vakarā ar Lienīti pa tuvējo apkartni Lauma 5.70 34:07 153 05:59 10.02
01/12/09 ar lienīti pa tuvējo apkārtni Lauma 8.20 52:00 164 06:20 9.46
23.90
29/11/09 miglā tumsu meklējot Lauma 5.50 30:20 165 05:30 10.88
26/11/09 pa tumsu Lauma 5.50 31:24 05:42 10.51
11.00
24/10/09 Siguldas skrējiens 2009 Lauma 22.00 3:36:56 09:51 6.08
20/10/09 līdz krēslai no meža ārā Lauma 2.00 12:06 06:03 9.92
20/10/09 mežā pa kalniem dzīvojot Lauma 2.00 15:00 07:30 8.00
26.00
18/10/09 lēnām pa mežu kompānījā un ar suni Lauma 4.45 33:00 07:24 8.09
13/10/09 mežs, tumsa, atstarotāji Lauma 5.50 31:13 05:40 10.57
9.95
10/10/09 āķis'09 salaspils Lauma 20.00
20.00
27/09/09 Valmieras maratona ietvaros Lauma 21.00 1:57:42 05:36 10.71
24/09/09 no lietus neizbēgt Lauma 5.80 30:40 05:17 11.35
26.80
20/09/09 zelta keda, mežparks Lauma 5.00 25:51 164 05:10 11.61
15/09/09 pēc embūtes skrējiens mežā, iesildīšanās spēlējoties ar suni Lauma 5.00 27:26 05:29 10.94
10.00
10/09/09 trase, mežs, saknes Lauma 9.00 49:21 05:29 10.94
08/09/09 jugla, mežs Lauma 3.60 18:22 05:06 11.76
12.60
25/08/09 jugla, apļi, saknes Lauma 7.20 39:41 05:30 10.89
7.20
11/08/09 Juglas apļi pēc pusmaratona Lauma 3.60 18:43 05:11 11.54
3.60
08/08/09 saulainais kuldīgas pusmaratons Lauma 21.00 2:11:49 165 06:16 9.56
05/08/09 iela, trase, mežs Lauma 6.50 35:40 165 05:29 10.93
04/08/09 mežs, suņi, cilvēki Lauma 6.00 33:43 156 05:37 10.68
33.50
30/07/09 sēņojot Lauma 6.60 35:43 161 05:24 11.09
28/07/09 Juglas apļi Lauma 3.60 19:20 05:22 11.17
10.20
22/07/09 apkārt šmerlim Lauma 5.50 29:20 168 05:20 11.25
5.50
14/07/09 Juglas apļi 6.kārta Lauma 3.60 18:59 05:16 11.38
3.60
12/07/09 Vaidavas triatlons Lauma 6.00 36:16 06:02 9.93
11/07/09 Skrējiens apkārt Vaidavas ezeram Lauma 11.70 1:06:36 05:41 10.54
17.70
30/06/09 sutīgie Juglas apļi 5.kārta Lauma 3.60 20:22 05:39 10.61
3.60
16/06/09 Juglas apļi 4.kārta Lauma 3.60 19:36 05:26 11.02
3.60
01/06/09 vakara skrējiens Lauma 4.70 27:51 05:55 10.13
4.70
17/05/09 Rīgas Maratons 2009 Lauma 21.00 2:18:19 06:35 9.11
21.00
28/09/08 Valmieras maratons satelīts Lauma 5.70 33:11 05:49 10.31
5.70
20/09/08 Nike izaicinājuma skrējiens Lauma 7.00 39:52 05:41 10.54
7.00
09/08/08 3.Kuldīgas pusmaratons Lauma 5.27 32:22 06:08 9.77
5.27
18/05/08 Nordea 18.Rīgas maratona satelīts Lauma 5.36 32:26 06:03 9.92
5.36